Time,TemperatureF,DewpointF,PressureIn,WindDirection,WindDirectionDegrees,WindSpeedMPH,WindSpeedGustMPH,Humidity,HourlyPrecipIn,Conditions,Clouds,dailyrainin,SoftwareType,DateUTC
2013-06-05 00:00:00,61.7,50.4,29.27,ESE,118,4.0,7.0,66,0.00,,,0.05,WUHU216DAVISVP2,2013-06-05 04:00:00,
2013-06-05 00:01:00,61.7,50.4,29.27,East,96,4.0,7.0,66,0.00,,,0.05,WUHU216DAVISVP2,2013-06-05 04:01:00,
2013-06-05 00:06:00,61.6,50.3,29.28,ENE,71,0.0,7.0,66,0.00,,,0.05,WUHU216DAVISVP2,2013-06-05 04:06:00,
2013-06-05 00:07:00,61.6,50.7,29.27,ENE,71,0.0,7.0,67,0.00,,,0.05,WUHU216DAVISVP2,2013-06-05 04:07:00,
2013-06-05 00:11:00,61.5,50.2,29.27,SE,125,4.0,8.0,66,0.00,,,0.05,WUHU216DAVISVP2,2013-06-05 04:11:00,
2013-06-05 00:12:00,61.5,50.2,29.27,East,87,4.0,8.0,66,0.00,,,0.00,WUHU216DAVISVP2,2013-06-05 04:12:00,
2013-06-05 00:16:00,61.6,49.9,29.27,East,99,5.0,8.0,65,0.00,,,0.00,WUHU216DAVISVP2,2013-06-05 04:16:00,
2013-06-05 00:17:00,61.6,49.9,29.27,East,97,6.0,8.0,65,0.00,,,0.00,WUHU216DAVISVP2,2013-06-05 04:17:00,
2013-06-05 00:22:00,61.7,49.8,29.27,ESE,106,0.0,8.0,65,0.00,,,0.00,WUHU216DAVISVP2,2013-06-05 04:22:00,
2013-06-05 00:23:00,61.7,49.8,29.28,ESE,107,4.0,8.0,65,0.00,,,0.00,WUHU216DAVISVP2,2013-06-05 04:23:00,
2013-06-05 00:27:00,61.7,49.6,29.27,ESE,104,4.0,8.0,64,0.00,,,0.00,WUHU216DAVISVP2,2013-06-05 04:27:00,
2013-06-05 00:28:00,61.7,49.6,29.27,East,101,4.0,8.0,64,0.00,,,0.00,WUHU216DAVISVP2,2013-06-05 04:28:00,
2013-06-05 00:32:00,61.8,49.2,29.28,East,91,5.0,8.0,63,0.00,,,0.00,WUHU216DAVISVP2,2013-06-05 04:32:00,
2013-06-05 00:33:00,61.8,49.2,29.27,ESE,108,4.0,8.0,63,0.00,,,0.00,WUHU216DAVISVP2,2013-06-05 04:33:00,
2013-06-05 00:37:00,62.1,49.1,29.27,ESE,114,6.0,9.0,62,0.00,,,0.00,WUHU216DAVISVP2,2013-06-05 04:37:00,
2013-06-05 00:38:00,62.1,48.6,29.27,ESE,110,6.0,9.0,61,0.00,,,0.00,WUHU216DAVISVP2,2013-06-05 04:38:00,
2013-06-05 00:42:00,62.3,48.7,29.27,ESE,120,5.0,10.0,61,0.00,,,0.00,WUHU216DAVISVP2,2013-06-05 04:42:00,
2013-06-05 00:43:00,62.4,48.3,29.27,East,95,4.0,10.0,60,0.00,,,0.00,WUHU216DAVISVP2,2013-06-05 04:43:00,
2013-06-05 00:47:00,62.4,48.5,29.27,ESE,108,5.0,10.0,60,0.00,,,0.00,WUHU216DAVISVP2,2013-06-05 04:47:00,
2013-06-05 00:48:00,62.4,48.5,29.27,ESE,112,6.0,10.0,60,0.00,,,0.00,WUHU216DAVISVP2,2013-06-05 04:48:00,
2013-06-05 00:49:00,62.4,48.5,29.27,ESE,110,7.0,10.0,60,0.00,,,0.00,WUHU216DAVISVP2,2013-06-05 04:49:00,
2013-06-05 00:52:00,62.4,48.5,29.27,ESE,106,5.0,10.0,60,0.01,,,0.01,WUHU216DAVISVP2,2013-06-05 04:52:00,
2013-06-05 00:53:00,62.4,48.5,29.27,East,83,6.0,10.0,60,0.01,,,0.01,WUHU216DAVISVP2,2013-06-05 04:53:00,
2013-06-05 00:54:00,62.4,48.5,29.27,ESE,107,7.0,10.0,60,0.01,,,0.01,WUHU216DAVISVP2,2013-06-05 04:54:00,
2013-06-05 00:58:00,62.3,48.4,29.27,SE,125,6.0,10.0,60,0.01,,,0.01,WUHU216DAVISVP2,2013-06-05 04:58:00,
2013-06-05 00:59:00,62.3,48.4,29.27,East,98,6.0,10.0,60,0.01,,,0.01,WUHU216DAVISVP2,2013-06-05 04:59:00,
2013-06-05 01:03:00,62.2,48.3,29.27,ESE,108,2.0,9.0,60,0.01,,,0.01,WUHU216DAVISVP2,2013-06-05 05:03:00,
2013-06-05 01:04:00,62.1,48.2,29.27,ESE,104,4.0,9.0,60,0.01,,,0.01,WUHU216DAVISVP2,2013-06-05 05:04:00,
2013-06-05 01:05:00,62.1,48.2,29.27,ESE,114,3.0,9.0,60,0.01,,,0.01,WUHU216DAVISVP2,2013-06-05 05:05:00,
2013-06-05 01:08:00,62.0,48.1,29.27,ESE,111,4.0,9.0,60,0.01,,,0.01,WUHU216DAVISVP2,2013-06-05 05:08:00,
2013-06-05 01:09:00,62.0,48.1,29.27,ESE,111,2.0,9.0,60,0.01,,,0.01,WUHU216DAVISVP2,2013-06-05 05:09:00,
2013-06-05 01:10:00,61.9,48.0,29.27,East,89,1.0,9.0,60,0.01,,,0.01,WUHU216DAVISVP2,2013-06-05 05:10:00,
2013-06-05 01:13:00,61.8,48.3,29.27,ESE,112,2.0,9.0,61,0.01,,,0.01,WUHU216DAVISVP2,2013-06-05 05:13:00,
2013-06-05 01:14:00,61.7,48.3,29.27,ESE,119,4.0,9.0,61,0.01,,,0.01,WUHU216DAVISVP2,2013-06-05 05:14:00,
2013-06-05 01:15:00,61.7,48.3,29.27,ESE,111,6.0,8.0,61,0.01,,,0.01,WUHU216DAVISVP2,2013-06-05 05:15:00,
2013-06-05 01:18:00,61.6,48.2,29.27,SE,136,3.0,8.0,61,0.01,,,0.01,WUHU216DAVISVP2,2013-06-05 05:18:00,
2013-06-05 01:19:00,61.6,48.2,29.27,ESE,116,5.0,8.0,61,0.01,,,0.01,WUHU216DAVISVP2,2013-06-05 05:19:00,
2013-06-05 01:20:00,61.6,48.2,29.27,ESE,107,6.0,8.0,61,0.01,,,0.01,WUHU216DAVISVP2,2013-06-05 05:20:00,
2013-06-05 01:23:00,61.5,48.1,29.27,East,99,4.0,8.0,61,0.01,,,0.01,WUHU216DAVISVP2,2013-06-05 05:23:00,
2013-06-05 01:24:00,61.5,47.6,29.27,ESE,104,4.0,8.0,60,0.01,,,0.01,WUHU216DAVISVP2,2013-06-05 05:24:00,
2013-06-05 01:25:00,61.5,47.6,29.27,East,96,6.0,8.0,60,0.01,,,0.01,WUHU216DAVISVP2,2013-06-05 05:25:00,
2013-06-05 01:28:00,61.5,47.6,29.27,ESE,116,5.0,8.0,60,0.01,,,0.01,WUHU216DAVISVP2,2013-06-05 05:28:00,
2013-06-05 01:29:00,61.5,47.6,29.27,ESE,122,4.0,8.0,60,0.01,,,0.01,WUHU216DAVISVP2,2013-06-05 05:29:00,
2013-06-05 01:31:00,61.5,47.6,29.27,East,81,5.0,8.0,60,0.01,,,0.01,WUHU216DAVISVP2,2013-06-05 05:31:00,
2013-06-05 01:34:00,61.4,47.5,29.27,ESE,104,4.0,7.0,60,0.01,,,0.01,WUHU216DAVISVP2,2013-06-05 05:34:00,
2013-06-05 01:35:00,61.4,47.5,29.27,East,87,3.0,7.0,60,0.01,,,0.01,WUHU216DAVISVP2,2013-06-05 05:35:00,
2013-06-05 01:37:00,61.4,47.5,29.27,ESE,119,5.0,7.0,60,0.01,,,0.01,WUHU216DAVISVP2,2013-06-05 05:37:00,
2013-06-05 01:39:00,61.4,47.5,29.27,ESE,114,6.0,7.0,60,0.01,,,0.01,WUHU216DAVISVP2,2013-06-05 05:39:00,
2013-06-05 01:40:00,61.3,47.4,29.27,ESE,106,6.0,7.0,60,0.01,,,0.01,WUHU216DAVISVP2,2013-06-05 05:40:00,
2013-06-05 01:42:00,61.3,47.4,29.27,East,81,2.0,7.0,60,0.01,,,0.01,WUHU216DAVISVP2,2013-06-05 05:42:00,
2013-06-05 01:44:00,61.2,47.8,29.27,ESE,107,6.0,7.0,61,0.01,,,0.01,WUHU216DAVISVP2,2013-06-05 05:44:00,
2013-06-05 01:45:00,61.2,47.3,29.27,SE,132,4.0,7.0,60,0.01,,,0.01,WUHU216DAVISVP2,2013-06-05 05:45:00,
2013-06-05 01:48:00,61.1,47.7,29.27,East,98,4.0,7.0,61,0.01,,,0.01,WUHU216DAVISVP2,2013-06-05 05:48:00,
2013-06-05 01:49:00,61.0,47.1,29.27,SE,129,4.0,9.0,60,0.01,,,0.01,WUHU216DAVISVP2,2013-06-05 05:49:00,
2013-06-05 01:50:00,61.0,47.6,29.27,ESE,106,3.0,9.0,61,0.01,,,0.01,WUHU216DAVISVP2,2013-06-05 05:50:00,
2013-06-05 01:51:00,61.0,47.6,29.26,ESE,119,5.0,9.0,61,0.01,,,0.01,WUHU216DAVISVP2,2013-06-05 05:51:00,
2013-06-05 01:53:00,60.9,47.5,29.26,ESE,116,4.0,9.0,61,0.00,,,0.01,WUHU216DAVISVP2,2013-06-05 05:53:00,
2013-06-05 01:54:00,60.8,47.4,29.26,ESE,123,2.0,9.0,61,0.00,,,0.01,WUHU216DAVISVP2,2013-06-05 05:54:00,
2013-06-05 01:55:00,60.8,47.4,29.26,East,91,1.0,9.0,61,0.00,,,0.01,WUHU216DAVISVP2,2013-06-05 05:55:00,
2013-06-05 01:56:00,60.8,47.8,29.26,East,97,1.0,9.0,62,0.00,,,0.01,WUHU216DAVISVP2,2013-06-05 05:56:00,
2013-06-05 01:58:00,60.7,47.7,29.26,ENE,70,0.0,9.0,62,0.00,,,0.01,WUHU216DAVISVP2,2013-06-05 05:58:00,
2013-06-05 01:59:00,60.7,47.7,29.26,SE,128,1.0,9.0,62,0.00,,,0.01,WUHU216DAVISVP2,2013-06-05 05:59:00,
2013-06-05 02:00:00,60.7,47.7,29.26,ESE,114,5.0,9.0,62,0.00,,,0.01,WUHU216DAVISVP2,2013-06-05 06:00:00,
2013-06-05 02:01:00,60.6,47.7,29.26,SE,143,1.0,9.0,62,0.00,,,0.01,WUHU216DAVISVP2,2013-06-05 06:01:00,
2013-06-05 02:03:00,60.5,47.6,29.26,ESE,110,4.0,9.0,62,0.00,,,0.01,WUHU216DAVISVP2,2013-06-05 06:03:00,
2013-06-05 02:05:00,60.5,47.6,29.26,East,96,2.0,9.0,62,0.00,,,0.01,WUHU216DAVISVP2,2013-06-05 06:05:00,
2013-06-05 02:06:00,60.4,47.5,29.27,SE,138,4.0,9.0,62,0.00,,,0.01,WUHU216DAVISVP2,2013-06-05 06:06:00,
2013-06-05 02:08:00,60.3,47.4,29.27,ESE,114,2.0,7.0,62,0.00,,,0.01,WUHU216DAVISVP2,2013-06-05 06:08:00,
2013-06-05 02:10:00,60.3,47.4,29.26,ESE,113,6.0,7.0,62,0.00,,,0.01,WUHU216DAVISVP2,2013-06-05 06:10:00,
2013-06-05 02:11:00,60.3,47.4,29.26,ESE,110,3.0,7.0,62,0.00,,,0.01,WUHU216DAVISVP2,2013-06-05 06:11:00,
2013-06-05 02:12:00,60.3,47.4,29.26,ESE,110,5.0,7.0,62,0.00,,,0.01,WUHU216DAVISVP2,2013-06-05 06:12:00,
2013-06-05 02:14:00,60.2,47.3,29.26,East,101,5.0,7.0,62,0.00,,,0.01,WUHU216DAVISVP2,2013-06-05 06:14:00,
2013-06-05 02:15:00,60.2,47.3,29.26,ESE,102,4.0,7.0,62,0.00,,,0.01,WUHU216DAVISVP2,2013-06-05 06:15:00,
2013-06-05 02:16:00,60.2,47.3,29.26,ESE,104,5.0,7.0,62,0.00,,,0.01,WUHU216DAVISVP2,2013-06-05 06:16:00,
2013-06-05 02:17:00,60.2,47.3,29.26,SE,130,6.0,7.0,62,0.00,,,0.01,WUHU216DAVISVP2,2013-06-05 06:17:00,
2013-06-05 02:19:00,60.2,47.3,29.26,ESE,102,5.0,7.0,62,0.00,,,0.01,WUHU216DAVISVP2,2013-06-05 06:19:00,
2013-06-05 02:20:00,60.2,47.3,29.26,East,89,6.0,8.0,62,0.00,,,0.01,WUHU216DAVISVP2,2013-06-05 06:20:00,
2013-06-05 02:21:00,60.2,47.3,29.26,ESE,102,6.0,8.0,62,0.00,,,0.01,WUHU216DAVISVP2,2013-06-05 06:21:00,
2013-06-05 02:22:00,60.2,47.3,29.26,ESE,116,6.0,8.0,62,0.00,,,0.01,WUHU216DAVISVP2,2013-06-05 06:22:00,
2013-06-05 02:24:00,60.1,47.2,29.26,East,87,4.0,8.0,62,0.00,,,0.01,WUHU216DAVISVP2,2013-06-05 06:24:00,
2013-06-05 02:25:00,60.1,47.2,29.26,ESE,116,4.0,9.0,62,0.00,,,0.01,WUHU216DAVISVP2,2013-06-05 06:25:00,
2013-06-05 02:26:00,60.1,47.2,29.26,SE,124,5.0,9.0,62,0.00,,,0.01,WUHU216DAVISVP2,2013-06-05 06:26:00,
2013-06-05 02:27:00,60.1,47.2,29.26,East,89,6.0,9.0,62,0.00,,,0.01,WUHU216DAVISVP2,2013-06-05 06:27:00,
2013-06-05 02:29:00,60.1,47.2,29.26,ESE,110,5.0,9.0,62,0.00,,,0.01,WUHU216DAVISVP2,2013-06-05 06:29:00,
2013-06-05 02:30:00,60.0,47.5,29.26,ESE,110,0.0,9.0,63,0.00,,,0.01,WUHU216DAVISVP2,2013-06-05 06:30:00,
2013-06-05 02:31:00,60.0,47.5,29.26,East,96,4.0,9.0,63,0.00,,,0.01,WUHU216DAVISVP2,2013-06-05 06:31:00,
2013-06-05 02:32:00,60.0,47.5,29.26,ESE,118,4.0,9.0,63,0.00,,,0.01,WUHU216DAVISVP2,2013-06-05 06:32:00,
2013-06-05 02:34:00,60.0,47.5,29.26,East,83,2.0,9.0,63,0.00,,,0.01,WUHU216DAVISVP2,2013-06-05 06:34:00,
2013-06-05 02:36:00,59.9,47.4,29.26,ESE,112,2.0,9.0,63,0.00,,,0.01,WUHU216DAVISVP2,2013-06-05 06:36:00,
2013-06-05 02:37:00,59.9,47.4,29.26,ESE,106,2.0,9.0,63,0.00,,,0.01,WUHU216DAVISVP2,2013-06-05 06:37:00,
2013-06-05 02:38:00,59.9,47.4,29.26,ESE,113,4.0,9.0,63,0.00,,,0.01,WUHU216DAVISVP2,2013-06-05 06:38:00,
2013-06-05 02:39:00,59.8,47.3,29.26,ESE,102,1.0,9.0,63,0.00,,,0.01,WUHU216DAVISVP2,2013-06-05 06:39:00,
2013-06-05 02:41:00,59.8,47.3,29.26,East,92,2.0,9.0,63,0.00,,,0.01,WUHU216DAVISVP2,2013-06-05 06:41:00,
2013-06-05 02:42:00,59.8,47.7,29.26,ESE,118,2.0,9.0,64,0.00,,,0.01,WUHU216DAVISVP2,2013-06-05 06:42:00,
2013-06-05 02:43:00,59.7,47.2,29.26,ESE,108,4.0,8.0,63,0.00,,,0.01,WUHU216DAVISVP2,2013-06-05 06:43:00,
2013-06-05 02:44:00,59.7,47.6,29.26,East,94,4.0,8.0,64,0.00,,,0.01,WUHU216DAVISVP2,2013-06-05 06:44:00,
2013-06-05 02:46:00,59.6,47.6,29.25,ESE,115,5.0,8.0,64,0.00,,,0.01,WUHU216DAVISVP2,2013-06-05 06:46:00,
2013-06-05 02:47:00,59.6,47.6,29.25,East,93,5.0,8.0,64,0.00,,,0.01,WUHU216DAVISVP2,2013-06-05 06:47:00,
2013-06-05 02:48:00,59.6,47.6,29.26,East,100,1.0,8.0,64,0.00,,,0.01,WUHU216DAVISVP2,2013-06-05 06:48:00,
2013-06-05 02:49:00,59.6,47.6,29.26,ESE,113,5.0,8.0,64,0.00,,,0.01,WUHU216DAVISVP2,2013-06-05 06:49:00,
2013-06-05 02:52:00,59.5,47.5,29.26,ESE,108,2.0,8.0,64,0.00,,,0.01,WUHU216DAVISVP2,2013-06-05 06:52:00,
2013-06-05 02:53:00,59.5,47.5,29.26,ESE,113,1.0,8.0,64,0.00,,,0.01,WUHU216DAVISVP2,2013-06-05 06:53:00,
2013-06-05 02:54:00,59.4,47.8,29.26,ESE,117,0.0,8.0,65,0.00,,,0.01,WUHU216DAVISVP2,2013-06-05 06:54:00,
2013-06-05 02:57:00,59.3,47.7,29.26,ESE,105,0.0,8.0,65,0.00,,,0.01,WUHU216DAVISVP2,2013-06-05 06:57:00,
2013-06-05 02:58:00,59.3,47.7,29.26,ESE,105,1.0,8.0,65,0.00,,,0.01,WUHU216DAVISVP2,2013-06-05 06:58:00,
2013-06-05 02:59:00,59.3,47.7,29.25,ESE,106,1.0,8.0,65,0.00,,,0.01,WUHU216DAVISVP2,2013-06-05 06:59:00,
2013-06-05 03:02:00,59.1,47.5,29.25,ESE,110,4.0,8.0,65,0.00,,,0.01,WUHU216DAVISVP2,2013-06-05 07:02:00,
2013-06-05 03:03:00,59.1,47.5,29.25,ESE,104,4.0,8.0,65,0.00,,,0.01,WUHU216DAVISVP2,2013-06-05 07:03:00,
2013-06-05 03:04:00,59.1,47.5,29.25,ESE,114,4.0,8.0,65,0.00,,,0.01,WUHU216DAVISVP2,2013-06-05 07:04:00,
2013-06-05 03:07:00,59.0,47.8,29.25,ESE,109,2.0,7.0,66,0.00,,,0.01,WUHU216DAVISVP2,2013-06-05 07:07:00,
2013-06-05 03:08:00,58.9,47.7,29.25,ESE,122,4.0,7.0,66,0.00,,,0.01,WUHU216DAVISVP2,2013-06-05 07:08:00,
2013-06-05 03:09:00,58.9,47.7,29.25,ESE,106,6.0,7.0,66,0.00,,,0.01,WUHU216DAVISVP2,2013-06-05 07:09:00,
2013-06-05 03:13:00,58.8,47.6,29.25,ESE,102,6.0,8.0,66,0.00,,,0.01,WUHU216DAVISVP2,2013-06-05 07:13:00,
2013-06-05 03:14:00,58.8,47.6,29.25,ENE,75,7.0,8.0,66,0.00,,,0.01,WUHU216DAVISVP2,2013-06-05 07:14:00,
2013-06-05 03:15:00,58.8,47.6,29.25,East,96,5.0,8.0,66,0.00,,,0.01,WUHU216DAVISVP2,2013-06-05 07:15:00,
2013-06-05 03:18:00,58.7,47.5,29.25,SE,125,5.0,8.0,66,0.00,,,0.01,WUHU216DAVISVP2,2013-06-05 07:18:00,
2013-06-05 03:20:00,58.7,47.5,29.25,ESE,102,7.0,8.0,66,0.00,,,0.01,WUHU216DAVISVP2,2013-06-05 07:20:00,
2013-06-05 03:23:00,58.7,47.5,29.25,ESE,119,3.0,9.0,66,0.00,,,0.01,WUHU216DAVISVP2,2013-06-05 07:23:00,
2013-06-05 03:25:00,58.7,47.5,29.25,ESE,104,5.0,9.0,66,0.00,,,0.01,WUHU216DAVISVP2,2013-06-05 07:25:00,
2013-06-05 03:28:00,58.7,47.5,29.25,ENE,67,0.0,9.0,66,0.00,,,0.01,WUHU216DAVISVP2,2013-06-05 07:28:00,
2013-06-05 03:29:00,58.7,47.5,29.25,SE,124,4.0,9.0,66,0.00,,,0.01,WUHU216DAVISVP2,2013-06-05 07:29:00,
2013-06-05 03:30:00,58.6,47.4,29.25,ESE,119,6.0,9.0,66,0.00,,,0.01,WUHU216DAVISVP2,2013-06-05 07:30:00,
2013-06-05 03:31:00,58.6,47.4,29.25,ENE,68,1.0,9.0,66,0.00,,,0.01,WUHU216DAVISVP2,2013-06-05 07:31:00,
2013-06-05 03:34:00,58.5,47.3,29.25,ESE,104,2.0,9.0,66,0.00,,,0.01,WUHU216DAVISVP2,2013-06-05 07:34:00,
2013-06-05 03:35:00,58.5,47.3,29.25,ESE,108,2.0,9.0,66,0.00,,,0.01,WUHU216DAVISVP2,2013-06-05 07:35:00,
2013-06-05 03:36:00,58.4,47.2,29.25,East,87,4.0,9.0,66,0.00,,,0.01,WUHU216DAVISVP2,2013-06-05 07:36:00,
2013-06-05 03:39:00,58.4,47.2,29.25,SE,127,6.0,9.0,66,0.00,,,0.01,WUHU216DAVISVP2,2013-06-05 07:39:00,
2013-06-05 03:41:00,58.3,47.5,29.25,ENE,73,5.0,9.0,67,0.00,,,0.01,WUHU216DAVISVP2,2013-06-05 07:41:00,
2013-06-05 03:44:00,58.2,47.4,29.25,ESE,106,2.0,7.0,67,0.00,,,0.01,WUHU216DAVISVP2,2013-06-05 07:44:00,
2013-06-05 03:45:00,58.2,47.4,29.25,SE,128,4.0,7.0,67,0.00,,,0.01,WUHU216DAVISVP2,2013-06-05 07:45:00,
2013-06-05 03:46:00,58.1,47.3,29.25,ESE,111,2.0,8.0,67,0.00,,,0.01,WUHU216DAVISVP2,2013-06-05 07:46:00,
2013-06-05 03:47:00,58.1,47.3,29.25,ESE,122,3.0,8.0,67,0.00,,,0.01,WUHU216DAVISVP2,2013-06-05 07:47:00,
2013-06-05 03:49:00,58.1,47.3,29.25,ESE,109,5.0,8.0,67,0.00,,,0.01,WUHU216DAVISVP2,2013-06-05 07:49:00,
2013-06-05 03:50:00,58.0,47.2,29.25,SE,133,0.0,8.0,67,0.00,,,0.01,WUHU216DAVISVP2,2013-06-05 07:50:00,
2013-06-05 03:51:00,58.0,47.2,29.25,ESE,107,3.0,8.0,67,0.00,,,0.01,WUHU216DAVISVP2,2013-06-05 07:51:00,
2013-06-05 03:52:00,58.0,47.2,29.25,SE,139,5.0,8.0,67,0.00,,,0.01,WUHU216DAVISVP2,2013-06-05 07:52:00,
2013-06-05 03:54:00,57.9,47.5,29.25,ESE,107,2.0,8.0,68,0.00,,,0.01,WUHU216DAVISVP2,2013-06-05 07:54:00,
2013-06-05 03:55:00,57.9,47.5,29.25,ESE,115,4.0,8.0,68,0.00,,,0.01,WUHU216DAVISVP2,2013-06-05 07:55:00,
2013-06-05 03:56:00,57.9,47.5,29.25,ESE,115,2.0,8.0,68,0.00,,,0.01,WUHU216DAVISVP2,2013-06-05 07:56:00,
2013-06-05 03:57:00,57.8,47.4,29.25,ESE,122,6.0,8.0,68,0.00,,,0.01,WUHU216DAVISVP2,2013-06-05 07:57:00,
2013-06-05 03:58:00,57.8,47.4,29.25,SE,129,6.0,8.0,68,0.00,,,0.01,WUHU216DAVISVP2,2013-06-05 07:58:00,
2013-06-05 03:59:00,57.8,47.4,29.25,ESE,105,6.0,8.0,68,0.00,,,0.01,WUHU216DAVISVP2,2013-06-05 07:59:00,
2013-06-05 04:00:00,57.8,47.4,29.25,ESE,104,5.0,8.0,68,0.00,,,0.01,WUHU216DAVISVP2,2013-06-05 08:00:00,
2013-06-05 04:01:00,57.8,47.4,29.25,ESE,121,6.0,8.0,68,0.00,,,0.01,WUHU216DAVISVP2,2013-06-05 08:01:00,
2013-06-05 04:02:00,57.8,47.4,29.25,ESE,116,5.0,8.0,68,0.00,,,0.01,WUHU216DAVISVP2,2013-06-05 08:02:00,
2013-06-05 04:03:00,57.7,47.3,29.25,ESE,113,5.0,8.0,68,0.00,,,0.01,WUHU216DAVISVP2,2013-06-05 08:03:00,
2013-06-05 04:05:00,57.7,47.3,29.26,ESE,122,2.0,8.0,68,0.00,,,0.01,WUHU216DAVISVP2,2013-06-05 08:05:00,
2013-06-05 04:07:00,57.7,47.3,29.25,ESE,114,5.0,8.0,68,0.00,,,0.01,WUHU216DAVISVP2,2013-06-05 08:07:00,
2013-06-05 04:08:00,57.6,47.2,29.25,East,96,2.0,8.0,68,0.00,,,0.01,WUHU216DAVISVP2,2013-06-05 08:08:00,
2013-06-05 04:10:00,57.6,47.2,29.25,ESE,120,4.0,8.0,68,0.00,,,0.01,WUHU216DAVISVP2,2013-06-05 08:10:00,
2013-06-05 04:11:00,57.6,47.2,29.25,ESE,102,2.0,8.0,68,0.00,,,0.01,WUHU216DAVISVP2,2013-06-05 08:11:00,
2013-06-05 04:12:00,57.5,47.5,29.25,SE,143,4.0,8.0,69,0.00,,,0.01,WUHU216DAVISVP2,2013-06-05 08:12:00,
2013-06-05 04:13:00,57.5,47.5,29.25,ESE,120,1.0,8.0,69,0.00,,,0.01,WUHU216DAVISVP2,2013-06-05 08:13:00,
2013-06-05 04:15:00,57.4,47.4,29.25,ESE,104,7.0,8.0,69,0.00,,,0.01,WUHU216DAVISVP2,2013-06-05 08:15:00,
2013-06-05 04:17:00,57.3,47.3,29.25,ESE,115,4.0,8.0,69,0.00,,,0.01,WUHU216DAVISVP2,2013-06-05 08:17:00,
2013-06-05 04:18:00,57.3,47.3,29.25,ESE,102,0.0,8.0,69,0.00,,,0.01,WUHU216DAVISVP2,2013-06-05 08:18:00,
2013-06-05 04:20:00,57.2,47.3,29.25,ESE,109,2.0,8.0,69,0.00,,,0.01,WUHU216DAVISVP2,2013-06-05 08:20:00,
2013-06-05 04:22:00,57.1,47.2,29.25,ESE,118,2.0,7.0,69,0.00,,,0.01,WUHU216DAVISVP2,2013-06-05 08:22:00,
2013-06-05 04:23:00,57.1,47.5,29.25,ESE,104,1.0,7.0,70,0.00,,,0.01,WUHU216DAVISVP2,2013-06-05 08:23:00,
2013-06-05 04:25:00,57.0,47.4,29.25,SE,140,1.0,8.0,70,0.00,,,0.01,WUHU216DAVISVP2,2013-06-05 08:25:00,
2013-06-05 04:27:00,57.0,47.4,29.25,East,95,0.0,8.0,70,0.00,,,0.01,WUHU216DAVISVP2,2013-06-05 08:27:00,
2013-06-05 04:29:00,56.9,47.3,29.25,ESE,109,3.0,8.0,70,0.00,,,0.01,WUHU216DAVISVP2,2013-06-05 08:29:00,
2013-06-05 04:30:00,56.9,47.3,29.25,ESE,123,5.0,8.0,70,0.00,,,0.01,WUHU216DAVISVP2,2013-06-05 08:30:00,
2013-06-05 04:32:00,56.8,47.6,29.25,ESE,122,1.0,8.0,71,0.00,,,0.01,WUHU216DAVISVP2,2013-06-05 08:32:00,
2013-06-05 04:34:00,56.8,47.6,29.25,ESE,109,5.0,8.0,71,0.00,,,0.01,WUHU216DAVISVP2,2013-06-05 08:34:00,
2013-06-05 04:35:00,56.7,47.5,29.25,East,90,4.0,8.0,71,0.00,,,0.01,WUHU216DAVISVP2,2013-06-05 08:35:00,
2013-06-05 04:37:00,56.7,47.5,29.25,ESE,119,4.0,8.0,71,0.00,,,0.01,WUHU216DAVISVP2,2013-06-05 08:37:00,
2013-06-05 04:38:00,56.6,47.4,29.25,ESE,108,2.0,8.0,71,0.00,,,0.01,WUHU216DAVISVP2,2013-06-05 08:38:00,
2013-06-05 04:39:00,56.6,47.4,29.25,ESE,108,5.0,8.0,71,0.00,,,0.01,WUHU216DAVISVP2,2013-06-05 08:39:00,
2013-06-05 04:40:00,56.6,47.4,29.25,ESE,105,5.0,8.0,71,0.00,,,0.01,WUHU216DAVISVP2,2013-06-05 08:40:00,
2013-06-05 04:42:00,56.5,47.3,29.25,ESE,102,4.0,8.0,71,0.00,,,0.01,WUHU216DAVISVP2,2013-06-05 08:42:00,
2013-06-05 04:43:00,56.5,47.3,29.25,East,91,4.0,8.0,71,0.00,,,0.01,WUHU216DAVISVP2,2013-06-05 08:43:00,
2013-06-05 04:44:00,56.5,47.3,29.25,ESE,120,6.0,8.0,71,0.00,,,0.01,WUHU216DAVISVP2,2013-06-05 08:44:00,
2013-06-05 04:45:00,56.5,47.3,29.25,ESE,108,4.0,8.0,71,0.00,,,0.01,WUHU216DAVISVP2,2013-06-05 08:45:00,
2013-06-05 04:48:00,56.4,47.6,29.25,ESE,108,4.0,8.0,72,0.00,,,0.01,WUHU216DAVISVP2,2013-06-05 08:48:00,
2013-06-05 04:50:00,56.4,47.6,29.25,SE,128,1.0,8.0,72,0.00,,,0.01,WUHU216DAVISVP2,2013-06-05 08:50:00,
2013-06-05 04:53:00,56.3,47.5,29.25,SE,128,2.0,8.0,72,0.00,,,0.01,WUHU216DAVISVP2,2013-06-05 08:53:00,
2013-06-05 04:55:00,56.3,47.5,29.25,East,99,4.0,8.0,72,0.00,,,0.01,WUHU216DAVISVP2,2013-06-05 08:55:00,
2013-06-05 04:56:00,56.2,47.4,29.25,ESE,104,5.0,8.0,72,0.00,,,0.01,WUHU216DAVISVP2,2013-06-05 08:56:00,
2013-06-05 04:58:00,56.2,47.4,29.25,East,97,6.0,8.0,72,0.00,,,0.01,WUHU216DAVISVP2,2013-06-05 08:58:00,
2013-06-05 04:59:00,56.2,47.4,29.25,ESE,109,3.0,8.0,72,0.00,,,0.01,WUHU216DAVISVP2,2013-06-05 08:59:00,
2013-06-05 05:00:00,56.2,47.4,29.25,ESE,103,2.0,8.0,72,0.00,,,0.01,WUHU216DAVISVP2,2013-06-05 09:00:00,
2013-06-05 05:01:00,56.2,47.4,29.25,SE,128,2.0,8.0,72,0.00,,,0.01,WUHU216DAVISVP2,2013-06-05 09:01:00,
2013-06-05 05:03:00,56.2,47.4,29.25,ESE,110,4.0,7.0,72,0.00,,,0.01,WUHU216DAVISVP2,2013-06-05 09:03:00,
2013-06-05 05:04:00,56.2,47.4,29.25,ESE,114,5.0,6.0,72,0.00,,,0.01,WUHU216DAVISVP2,2013-06-05 09:04:00,
2013-06-05 05:05:00,56.2,47.4,29.25,East,100,5.0,6.0,72,0.00,,,0.01,WUHU216DAVISVP2,2013-06-05 09:05:00,
2013-06-05 05:06:00,56.1,47.3,29.25,ESE,114,4.0,7.0,72,0.00,,,0.01,WUHU216DAVISVP2,2013-06-05 09:06:00,
2013-06-05 05:08:00,56.1,47.3,29.25,ESE,106,7.0,9.0,72,0.00,,,0.01,WUHU216DAVISVP2,2013-06-05 09:08:00,
2013-06-05 05:09:00,56.1,47.3,29.25,SE,125,7.0,9.0,72,0.00,,,0.01,WUHU216DAVISVP2,2013-06-05 09:09:00,
2013-06-05 05:10:00,56.1,47.3,29.25,ESE,103,4.0,9.0,72,0.00,,,0.01,WUHU216DAVISVP2,2013-06-05 09:10:00,
2013-06-05 05:11:00,56.1,47.3,29.25,East,93,4.0,9.0,72,0.00,,,0.01,WUHU216DAVISVP2,2013-06-05 09:11:00,
2013-06-05 05:14:00,56.1,47.3,29.25,East,97,6.0,9.0,72,0.00,,,0.01,WUHU216DAVISVP2,2013-06-05 09:14:00,
2013-06-05 05:15:00,56.1,47.3,29.25,ESE,118,3.0,9.0,72,0.00,,,0.01,WUHU216DAVISVP2,2013-06-05 09:15:00,
2013-06-05 05:16:00,56.1,47.3,29.26,ESE,112,7.0,9.0,72,0.00,,,0.01,WUHU216DAVISVP2,2013-06-05 09:16:00,
2013-06-05 05:19:00,56.0,47.2,29.25,SE,127,5.0,9.0,72,0.01,,,0.02,WUHU216DAVISVP2,2013-06-05 09:19:00,
2013-06-05 05:20:00,56.0,47.2,29.25,ESE,116,5.0,9.0,72,0.01,,,0.02,WUHU216DAVISVP2,2013-06-05 09:20:00,
2013-06-05 05:21:00,56.0,46.8,29.25,SE,124,5.0,9.0,71,0.01,,,0.02,WUHU216DAVISVP2,2013-06-05 09:21:00,
2013-06-05 05:24:00,56.0,46.8,29.25,ESE,109,6.0,9.0,71,0.01,,,0.02,WUHU216DAVISVP2,2013-06-05 09:24:00,
2013-06-05 05:25:00,56.0,46.8,29.25,ESE,104,4.0,9.0,71,0.01,,,0.02,WUHU216DAVISVP2,2013-06-05 09:25:00,
2013-06-05 05:27:00,56.0,46.8,29.25,ESE,122,4.0,9.0,71,0.01,,,0.02,WUHU216DAVISVP2,2013-06-05 09:27:00,
2013-06-05 05:29:00,55.9,46.7,29.25,ESE,109,5.0,9.0,71,0.01,,,0.02,WUHU216DAVISVP2,2013-06-05 09:29:00,
2013-06-05 05:30:00,55.9,46.7,29.25,ESE,104,4.0,9.0,71,0.01,,,0.02,WUHU216DAVISVP2,2013-06-05 09:30:00,
2013-06-05 05:32:00,55.9,46.7,29.25,East,97,6.0,9.0,71,0.01,,,0.02,WUHU216DAVISVP2,2013-06-05 09:32:00,
2013-06-05 05:35:00,55.9,46.7,29.25,ESE,115,7.0,9.0,71,0.01,,,0.02,WUHU216DAVISVP2,2013-06-05 09:35:00,
2013-06-05 05:37:00,55.9,46.7,29.25,ESE,106,4.0,9.0,71,0.01,,,0.02,WUHU216DAVISVP2,2013-06-05 09:37:00,
2013-06-05 05:40:00,55.8,46.7,29.25,ESE,120,5.0,9.0,71,0.01,,,0.02,WUHU216DAVISVP2,2013-06-05 09:40:00,
2013-06-05 05:41:00,55.8,46.7,29.26,ESE,122,6.0,9.0,71,0.01,,,0.02,WUHU216DAVISVP2,2013-06-05 09:41:00,
2013-06-05 05:42:00,55.8,46.7,29.25,ESE,108,6.0,9.0,71,0.01,,,0.02,WUHU216DAVISVP2,2013-06-05 09:42:00,
2013-06-05 05:45:00,55.7,46.9,29.25,ESE,109,6.0,9.0,72,0.01,,,0.02,WUHU216DAVISVP2,2013-06-05 09:45:00,
2013-06-05 05:46:00,55.7,46.6,29.25,East,95,3.0,9.0,71,0.01,,,0.02,WUHU216DAVISVP2,2013-06-05 09:46:00,
2013-06-05 05:47:00,55.7,46.9,29.26,ESE,110,2.0,9.0,72,0.01,,,0.02,WUHU216DAVISVP2,2013-06-05 09:47:00,
2013-06-05 05:48:00,55.6,46.8,29.26,ESE,106,4.0,9.0,72,0.01,,,0.02,WUHU216DAVISVP2,2013-06-05 09:48:00,
2013-06-05 05:50:00,55.6,46.8,29.26,ESE,106,5.0,9.0,72,0.01,,,0.02,WUHU216DAVISVP2,2013-06-05 09:50:00,
2013-06-05 05:51:00,55.5,46.7,29.26,ENE,75,5.0,9.0,72,0.01,,,0.02,WUHU216DAVISVP2,2013-06-05 09:51:00,
2013-06-05 05:52:00,55.5,46.7,29.26,ENE,68,4.0,9.0,72,0.01,,,0.02,WUHU216DAVISVP2,2013-06-05 09:52:00,
2013-06-05 05:53:00,55.5,46.7,29.25,ENE,60,2.0,9.0,72,0.01,,,0.02,WUHU216DAVISVP2,2013-06-05 09:53:00,
2013-06-05 05:55:00,55.5,46.7,29.26,ENE,64,2.0,9.0,72,0.01,,,0.02,WUHU216DAVISVP2,2013-06-05 09:55:00,
2013-06-05 05:56:00,55.5,46.7,29.26,ENE,73,3.0,9.0,72,0.01,,,0.02,WUHU216DAVISVP2,2013-06-05 09:56:00,
2013-06-05 05:57:00,55.5,46.7,29.26,East,91,2.0,9.0,72,0.01,,,0.02,WUHU216DAVISVP2,2013-06-05 09:57:00,
2013-06-05 05:59:00,55.4,46.6,29.26,East,97,2.0,9.0,72,0.01,,,0.02,WUHU216DAVISVP2,2013-06-05 09:59:00,
2013-06-05 06:00:00,55.5,46.4,29.26,East,89,6.0,8.0,71,0.01,,,0.02,WUHU216DAVISVP2,2013-06-05 10:00:00,
2013-06-05 06:01:00,55.5,46.4,29.26,East,94,4.0,8.0,71,0.01,,,0.02,WUHU216DAVISVP2,2013-06-05 10:01:00,
2013-06-05 06:02:00,55.5,46.4,29.26,ENE,62,5.0,8.0,71,0.01,,,0.02,WUHU216DAVISVP2,2013-06-05 10:02:00,
2013-06-05 06:03:00,55.5,46.4,29.26,East,93,2.0,8.0,71,0.01,,,0.02,WUHU216DAVISVP2,2013-06-05 10:03:00,
2013-06-05 06:04:00,55.5,46.4,29.26,ENE,73,2.0,8.0,71,0.01,,,0.02,WUHU216DAVISVP2,2013-06-05 10:04:00,
2013-06-05 06:06:00,55.5,46.4,29.26,East,84,4.0,8.0,71,0.01,,,0.02,WUHU216DAVISVP2,2013-06-05 10:06:00,
2013-06-05 06:07:00,55.5,46.4,29.26,East,84,2.0,8.0,71,0.01,,,0.02,WUHU216DAVISVP2,2013-06-05 10:07:00,
2013-06-05 06:08:00,55.5,46.4,29.25,ENE,70,5.0,8.0,71,0.01,,,0.02,WUHU216DAVISVP2,2013-06-05 10:08:00,
2013-06-05 06:10:00,55.5,46.4,29.25,ENE,73,2.0,8.0,71,0.01,,,0.02,WUHU216DAVISVP2,2013-06-05 10:10:00,
2013-06-05 06:11:00,55.4,46.3,29.26,ENE,64,4.0,8.0,71,0.01,,,0.02,WUHU216DAVISVP2,2013-06-05 10:11:00,
2013-06-05 06:12:00,55.4,46.3,29.26,ENE,66,4.0,8.0,71,0.01,,,0.02,WUHU216DAVISVP2,2013-06-05 10:12:00,
2013-06-05 06:13:00,55.3,46.2,29.26,ENE,68,4.0,8.0,71,0.01,,,0.02,WUHU216DAVISVP2,2013-06-05 10:13:00,
2013-06-05 06:15:00,55.3,46.2,29.26,ENE,68,2.0,8.0,71,0.01,,,0.02,WUHU216DAVISVP2,2013-06-05 10:15:00,
2013-06-05 06:17:00,55.2,46.4,29.26,ENE,68,1.0,8.0,72,0.01,,,0.02,WUHU216DAVISVP2,2013-06-05 10:17:00,
2013-06-05 06:18:00,55.2,46.4,29.26,ENE,68,5.0,8.0,72,0.01,,,0.02,WUHU216DAVISVP2,2013-06-05 10:18:00,
2013-06-05 06:20:00,55.1,46.3,29.26,ENE,68,4.0,8.0,72,0.00,,,0.02,WUHU216DAVISVP2,2013-06-05 10:20:00,
2013-06-05 06:22:00,55.1,46.3,29.26,ENE,73,4.0,8.0,72,0.00,,,0.02,WUHU216DAVISVP2,2013-06-05 10:22:00,
2013-06-05 06:23:00,55.0,46.2,29.26,NE,52,5.0,8.0,72,0.00,,,0.02,WUHU216DAVISVP2,2013-06-05 10:23:00,
2013-06-05 06:25:00,55.0,46.2,29.27,NE,53,2.0,8.0,72,0.00,,,0.02,WUHU216DAVISVP2,2013-06-05 10:25:00,
2013-06-05 06:27:00,55.0,46.2,29.27,East,80,3.0,7.0,72,0.00,,,0.02,WUHU216DAVISVP2,2013-06-05 10:27:00,
2013-06-05 06:28:00,55.0,46.2,29.27,East,95,4.0,7.0,72,0.00,,,0.02,WUHU216DAVISVP2,2013-06-05 10:28:00,
2013-06-05 06:30:00,55.1,46.0,29.27,East,90,5.0,7.0,71,0.00,,,0.02,WUHU216DAVISVP2,2013-06-05 10:30:00,
2013-06-05 06:32:00,55.1,46.0,29.27,ESE,102,6.0,7.0,71,0.00,,,0.02,WUHU216DAVISVP2,2013-06-05 10:32:00,
2013-06-05 06:33:00,55.1,46.0,29.27,ESE,109,1.0,7.0,71,0.00,,,0.02,WUHU216DAVISVP2,2013-06-05 10:33:00,
2013-06-05 06:34:00,55.1,46.0,29.27,East,89,4.0,7.0,71,0.00,,,0.02,WUHU216DAVISVP2,2013-06-05 10:34:00,
2013-06-05 06:35:00,55.0,45.9,29.27,East,92,3.0,7.0,71,0.00,,,0.02,WUHU216DAVISVP2,2013-06-05 10:35:00,
2013-06-05 06:37:00,55.0,45.9,29.27,East,100,4.0,7.0,71,0.00,,,0.02,WUHU216DAVISVP2,2013-06-05 10:37:00,
2013-06-05 06:38:00,55.0,45.9,29.27,East,97,4.0,7.0,71,0.00,,,0.02,WUHU216DAVISVP2,2013-06-05 10:38:00,
2013-06-05 06:39:00,55.0,45.9,29.27,East,91,3.0,7.0,71,0.00,,,0.02,WUHU216DAVISVP2,2013-06-05 10:39:00,
2013-06-05 06:40:00,55.0,45.9,29.27,East,85,4.0,7.0,71,0.00,,,0.02,WUHU216DAVISVP2,2013-06-05 10:40:00,
2013-06-05 06:42:00,55.0,45.9,29.27,East,81,4.0,7.0,71,0.00,,,0.02,WUHU216DAVISVP2,2013-06-05 10:42:00,
2013-06-05 06:44:00,55.0,45.9,29.27,East,80,5.0,7.0,71,0.00,,,0.02,WUHU216DAVISVP2,2013-06-05 10:44:00,
2013-06-05 06:45:00,55.0,45.9,29.27,ENE,70,3.0,7.0,71,0.00,,,0.02,WUHU216DAVISVP2,2013-06-05 10:45:00,
2013-06-05 06:48:00,55.0,45.9,29.27,East,96,7.0,7.0,71,0.00,,,0.02,WUHU216DAVISVP2,2013-06-05 10:48:00,
2013-06-05 06:49:00,55.0,45.5,29.27,ESE,104,5.0,8.0,70,0.00,,,0.02,WUHU216DAVISVP2,2013-06-05 10:49:00,
2013-06-05 06:50:00,55.1,45.6,29.27,East,97,4.0,8.0,70,0.00,,,0.02,WUHU216DAVISVP2,2013-06-05 10:50:00,
2013-06-05 06:53:00,55.2,45.7,29.27,ESE,103,4.0,9.0,70,0.00,,,0.02,WUHU216DAVISVP2,2013-06-05 10:53:00,
2013-06-05 06:54:00,55.2,45.7,29.27,ESE,108,4.0,9.0,70,0.00,,,0.02,WUHU216DAVISVP2,2013-06-05 10:54:00,
2013-06-05 06:55:00,55.2,45.7,29.28,ESE,106,5.0,9.0,70,0.00,,,0.02,WUHU216DAVISVP2,2013-06-05 10:55:00,
2013-06-05 06:56:00,55.3,45.8,29.28,East,97,4.0,9.0,70,0.00,,,0.02,WUHU216DAVISVP2,2013-06-05 10:56:00,
2013-06-05 06:58:00,55.3,45.4,29.28,East,97,4.0,9.0,69,0.00,,,0.02,WUHU216DAVISVP2,2013-06-05 10:58:00,
2013-06-05 06:59:00,55.3,45.4,29.28,ESE,106,5.0,9.0,69,0.00,,,0.02,WUHU216DAVISVP2,2013-06-05 10:59:00,
2013-06-05 07:00:00,55.3,45.4,29.28,SE,125,5.0,9.0,69,0.00,,,0.02,WUHU216DAVISVP2,2013-06-05 11:00:00,
2013-06-05 07:01:00,55.3,45.4,29.27,ENE,71,5.0,9.0,69,0.00,,,0.02,WUHU216DAVISVP2,2013-06-05 11:01:00,
2013-06-05 07:03:00,55.2,45.3,29.27,ESE,102,5.0,9.0,69,0.00,,,0.02,WUHU216DAVISVP2,2013-06-05 11:03:00,
2013-06-05 07:04:00,55.3,45.4,29.27,SE,144,5.0,9.0,69,0.00,,,0.02,WUHU216DAVISVP2,2013-06-05 11:04:00,
2013-06-05 07:05:00,55.2,45.3,29.27,ESE,104,6.0,9.0,69,0.00,,,0.02,WUHU216DAVISVP2,2013-06-05 11:05:00,
2013-06-05 07:06:00,55.2,45.3,29.28,ESE,108,1.0,9.0,69,0.00,,,0.02,WUHU216DAVISVP2,2013-06-05 11:06:00,
2013-06-05 07:08:00,55.2,45.7,29.28,ESE,116,5.0,9.0,70,0.00,,,0.02,WUHU216DAVISVP2,2013-06-05 11:08:00,
2013-06-05 07:09:00,55.3,45.8,29.28,East,87,2.0,9.0,70,0.00,,,0.02,WUHU216DAVISVP2,2013-06-05 11:09:00,
2013-06-05 07:10:00,55.3,45.8,29.28,ESE,102,3.0,9.0,70,0.00,,,0.02,WUHU216DAVISVP2,2013-06-05 11:10:00,
2013-06-05 07:12:00,55.3,45.8,29.28,East,100,2.0,9.0,70,0.00,,,0.02,WUHU216DAVISVP2,2013-06-05 11:12:00,
2013-06-05 07:14:00,55.3,45.8,29.28,ESE,104,6.0,9.0,70,0.00,,,0.02,WUHU216DAVISVP2,2013-06-05 11:14:00,
2013-06-05 07:15:00,55.3,45.8,29.28,ESE,108,4.0,9.0,70,0.00,,,0.02,WUHU216DAVISVP2,2013-06-05 11:15:00,
2013-06-05 07:17:00,55.3,45.8,29.28,SSE,156,2.0,9.0,70,0.00,,,0.02,WUHU216DAVISVP2,2013-06-05 11:17:00,
2013-06-05 07:19:00,55.4,46.3,29.27,ESE,114,3.0,9.0,71,0.00,,,0.02,WUHU216DAVISVP2,2013-06-05 11:19:00,
2013-06-05 07:20:00,55.4,46.3,29.27,ESE,105,4.0,9.0,71,0.00,,,0.02,WUHU216DAVISVP2,2013-06-05 11:20:00,
2013-06-05 07:22:00,55.5,46.4,29.27,ESE,105,0.0,9.0,71,0.00,,,0.02,WUHU216DAVISVP2,2013-06-05 11:22:00,
2013-06-05 07:24:00,55.5,46.2,29.27,ESE,114,2.0,9.0,71,0.00,,,0.02,WUHU216DAVISVP2,2013-06-05 11:24:00,
2013-06-05 07:25:00,55.5,46.2,29.27,ESE,114,0.0,9.0,71,0.00,,,0.02,WUHU216DAVISVP2,2013-06-05 11:25:00,
2013-06-05 07:26:00,55.5,46.2,29.27,SE,128,2.0,9.0,71,0.00,,,0.02,WUHU216DAVISVP2,2013-06-05 11:26:00,
2013-06-05 07:27:00,55.5,46.2,29.27,ENE,75,1.0,9.0,71,0.00,,,0.02,WUHU216DAVISVP2,2013-06-05 11:27:00,
2013-06-05 07:30:00,55.6,46.3,29.28,ESE,112,5.0,9.0,71,0.00,,,0.02,WUHU216DAVISVP2,2013-06-05 11:30:00,
2013-06-05 07:31:00,55.6,46.3,29.28,SE,127,5.0,9.0,71,0.00,,,0.02,WUHU216DAVISVP2,2013-06-05 11:31:00,
2013-06-05 07:33:00,55.6,46.3,29.28,ESE,116,7.0,9.0,71,0.00,,,0.02,WUHU216DAVISVP2,2013-06-05 11:33:00,
2013-06-05 07:35:00,55.7,46.4,29.28,ESE,114,4.0,9.0,71,0.00,,,0.02,WUHU216DAVISVP2,2013-06-05 11:35:00,
2013-06-05 07:36:00,55.7,46.4,29.27,East,93,6.0,9.0,71,0.00,,,0.02,WUHU216DAVISVP2,2013-06-05 11:36:00,
2013-06-05 07:38:00,55.7,46.6,29.28,East,100,5.0,9.0,71,0.00,,,0.02,WUHU216DAVISVP2,2013-06-05 11:38:00,
2013-06-05 07:40:00,55.8,46.7,29.28,ESE,103,8.0,10.0,71,0.00,,,0.02,WUHU216DAVISVP2,2013-06-05 11:40:00,
2013-06-05 07:41:00,55.9,46.7,29.27,ESE,106,7.0,10.0,71,0.00,,,0.02,WUHU216DAVISVP2,2013-06-05 11:41:00,
2013-06-05 07:42:00,56.0,46.5,29.27,East,82,4.0,10.0,70,0.00,,,0.02,WUHU216DAVISVP2,2013-06-05 11:42:00,
2013-06-05 07:43:00,56.0,46.7,29.27,ESE,120,5.0,10.0,71,0.00,,,0.02,WUHU216DAVISVP2,2013-06-05 11:43:00,
2013-06-05 07:45:00,56.1,46.4,29.27,East,94,6.0,10.0,70,0.00,,,0.02,WUHU216DAVISVP2,2013-06-05 11:45:00,
2013-06-05 07:46:00,56.2,46.5,29.27,ESE,107,8.0,10.0,70,0.00,,,0.02,WUHU216DAVISVP2,2013-06-05 11:46:00,
2013-06-05 07:47:00,56.2,46.5,29.27,ESE,108,8.0,10.0,70,0.00,,,0.02,WUHU216DAVISVP2,2013-06-05 11:47:00,
2013-06-05 07:48:00,56.2,46.5,29.27,East,80,5.0,10.0,70,0.00,,,0.02,WUHU216DAVISVP2,2013-06-05 11:48:00,
2013-06-05 07:50:00,56.4,46.7,29.27,East,80,4.0,10.0,70,0.00,,,0.02,WUHU216DAVISVP2,2013-06-05 11:50:00,
2013-06-05 07:52:00,56.6,47.1,29.27,ESE,120,5.0,10.0,70,0.00,,,0.02,WUHU216DAVISVP2,2013-06-05 11:52:00,
2013-06-05 07:53:00,56.6,47.1,29.27,East,88,1.0,10.0,70,0.00,,,0.02,WUHU216DAVISVP2,2013-06-05 11:53:00,
2013-06-05 07:55:00,56.8,46.9,29.27,SE,135,7.0,10.0,69,0.00,,,0.02,WUHU216DAVISVP2,2013-06-05 11:55:00,
2013-06-05 07:57:00,56.9,47.0,29.27,East,97,9.0,10.0,69,0.00,,,0.02,WUHU216DAVISVP2,2013-06-05 11:57:00,
2013-06-05 07:58:00,56.9,47.0,29.27,East,100,6.0,10.0,69,0.00,,,0.02,WUHU216DAVISVP2,2013-06-05 11:58:00,
2013-06-05 08:01:00,57.1,46.8,29.27,ESE,106,8.0,11.0,68,0.00,,,0.02,WUHU216DAVISVP2,2013-06-05 12:01:00,
2013-06-05 08:02:00,57.1,46.6,29.27,ESE,106,8.0,11.0,68,0.00,,,0.02,WUHU216DAVISVP2,2013-06-05 12:02:00,
2013-06-05 08:03:00,57.1,46.6,29.27,ESE,119,8.0,11.0,68,0.01,,,0.03,WUHU216DAVISVP2,2013-06-05 12:03:00,
2013-06-05 08:04:00,57.2,46.7,29.27,ENE,65,5.0,11.0,68,0.01,,,0.03,WUHU216DAVISVP2,2013-06-05 12:04:00,
2013-06-05 08:06:00,57.3,46.8,29.27,ESE,116,6.0,11.0,68,0.01,,,0.03,WUHU216DAVISVP2,2013-06-05 12:06:00,
2013-06-05 08:07:00,57.4,46.9,29.27,ESE,106,9.0,11.0,68,0.01,,,0.03,WUHU216DAVISVP2,2013-06-05 12:07:00,
2013-06-05 08:08:00,57.4,46.9,29.27,ESE,108,7.0,11.0,68,0.01,,,0.03,WUHU216DAVISVP2,2013-06-05 12:08:00,
2013-06-05 08:09:00,57.4,46.9,29.27,ESE,102,6.0,11.0,68,0.01,,,0.03,WUHU216DAVISVP2,2013-06-05 12:09:00,
2013-06-05 08:11:00,57.5,47.0,29.27,ESE,110,4.0,11.0,68,0.01,,,0.03,WUHU216DAVISVP2,2013-06-05 12:11:00,
2013-06-05 08:13:00,57.5,47.0,29.27,ENE,76,4.0,11.0,68,0.01,,,0.03,WUHU216DAVISVP2,2013-06-05 12:13:00,
2013-06-05 08:14:00,57.5,47.0,29.27,East,91,5.0,11.0,68,0.01,,,0.03,WUHU216DAVISVP2,2013-06-05 12:14:00,
2013-06-05 08:17:00,57.6,46.7,29.27,ESE,112,4.0,11.0,67,0.01,,,0.03,WUHU216DAVISVP2,2013-06-05 12:17:00,
2013-06-05 08:18:00,57.7,46.8,29.27,ESE,117,5.0,11.0,67,0.01,,,0.03,WUHU216DAVISVP2,2013-06-05 12:18:00,
2013-06-05 08:19:00,57.8,46.9,29.27,East,97,5.0,11.0,67,0.01,,,0.03,WUHU216DAVISVP2,2013-06-05 12:19:00,
2013-06-05 08:22:00,57.9,47.1,29.27,ESE,109,6.0,10.0,67,0.01,,,0.03,WUHU216DAVISVP2,2013-06-05 12:22:00,
2013-06-05 08:23:00,58.0,47.2,29.27,ESE,117,6.0,9.0,67,0.01,,,0.03,WUHU216DAVISVP2,2013-06-05 12:23:00,
2013-06-05 08:24:00,58.2,47.4,29.27,NE,43,6.0,9.0,67,0.01,,,0.03,WUHU216DAVISVP2,2013-06-05 12:24:00,
2013-06-05 08:27:00,58.4,47.6,29.27,ESE,111,9.0,9.0,67,0.01,,,0.03,WUHU216DAVISVP2,2013-06-05 12:27:00,
2013-06-05 08:28:00,58.4,47.2,29.27,East,96,8.0,9.0,66,0.01,,,0.03,WUHU216DAVISVP2,2013-06-05 12:28:00,
2013-06-05 08:30:00,58.5,47.3,29.27,ESE,105,7.0,9.0,66,0.01,,,0.03,WUHU216DAVISVP2,2013-06-05 12:30:00,
2013-06-05 08:32:00,58.6,47.4,29.27,East,99,5.0,9.0,66,0.01,,,0.03,WUHU216DAVISVP2,2013-06-05 12:32:00,
2013-06-05 08:33:00,58.8,47.9,29.26,East,96,9.0,9.0,67,0.01,,,0.03,WUHU216DAVISVP2,2013-06-05 12:33:00,
2013-06-05 08:34:00,58.8,47.5,29.26,ESE,104,10.0,10.0,66,0.01,,,0.03,WUHU216DAVISVP2,2013-06-05 12:34:00,
2013-06-05 08:35:00,58.8,47.1,29.26,ESE,103,8.0,11.0,65,0.01,,,0.03,WUHU216DAVISVP2,2013-06-05 12:35:00,
2013-06-05 08:37:00,59.0,47.7,29.26,ESE,102,6.0,11.0,66,0.01,,,0.03,WUHU216DAVISVP2,2013-06-05 12:37:00,
2013-06-05 08:38:00,59.1,47.3,29.26,ESE,120,9.0,11.0,65,0.01,,,0.03,WUHU216DAVISVP2,2013-06-05 12:38:00,
2013-06-05 08:39:00,59.1,47.3,29.26,East,82,4.0,11.0,65,0.01,,,0.03,WUHU216DAVISVP2,2013-06-05 12:39:00,
2013-06-05 08:40:00,59.2,47.6,29.26,SE,129,8.0,11.0,65,0.01,,,0.03,WUHU216DAVISVP2,2013-06-05 12:40:00,
2013-06-05 08:42:00,59.3,47.3,29.26,SSE,151,10.0,11.0,64,0.01,,,0.03,WUHU216DAVISVP2,2013-06-05 12:42:00,
2013-06-05 08:44:00,59.3,47.7,29.26,ENE,78,4.0,12.0,65,0.01,,,0.03,WUHU216DAVISVP2,2013-06-05 12:44:00,
2013-06-05 08:45:00,59.5,47.9,29.26,ENE,67,5.0,12.0,65,0.01,,,0.03,WUHU216DAVISVP2,2013-06-05 12:45:00,
2013-06-05 08:46:00,59.5,47.9,29.26,ESE,116,4.0,12.0,65,0.01,,,0.03,WUHU216DAVISVP2,2013-06-05 12:46:00,
2013-06-05 08:47:00,59.6,48.0,29.26,SE,128,6.0,12.0,65,0.01,,,0.03,WUHU216DAVISVP2,2013-06-05 12:47:00,
2013-06-05 08:49:00,59.7,48.1,29.26,East,83,5.0,12.0,65,0.01,,,0.03,WUHU216DAVISVP2,2013-06-05 12:49:00,
2013-06-05 08:51:00,59.9,48.3,29.26,East,89,5.0,12.0,65,0.01,,,0.03,WUHU216DAVISVP2,2013-06-05 12:51:00,
2013-06-05 08:53:00,60.1,48.0,29.26,East,91,3.0,12.0,64,0.01,,,0.03,WUHU216DAVISVP2,2013-06-05 12:53:00,
2013-06-05 08:54:00,60.1,48.4,29.26,East,81,5.0,12.0,65,0.01,,,0.03,WUHU216DAVISVP2,2013-06-05 12:54:00,
2013-06-05 08:55:00,60.2,48.5,29.26,East,97,5.0,12.0,65,0.01,,,0.03,WUHU216DAVISVP2,2013-06-05 12:55:00,
2013-06-05 08:56:00,60.3,48.6,29.26,ESE,116,6.0,12.0,65,0.01,,,0.03,WUHU216DAVISVP2,2013-06-05 12:56:00,
2013-06-05 08:58:00,60.5,48.8,29.26,East,93,7.0,12.0,65,0.01,,,0.03,WUHU216DAVISVP2,2013-06-05 12:58:00,
2013-06-05 08:59:00,60.5,48.4,29.25,East,97,8.0,12.0,64,0.01,,,0.03,WUHU216DAVISVP2,2013-06-05 12:59:00,
2013-06-05 09:00:00,60.5,48.4,29.25,SE,125,8.0,12.0,64,0.01,,,0.03,WUHU216DAVISVP2,2013-06-05 13:00:00,
2013-06-05 09:01:00,60.6,48.5,29.25,ESE,115,8.0,12.0,64,0.01,,,0.03,WUHU216DAVISVP2,2013-06-05 13:01:00,
2013-06-05 09:02:00,60.6,48.5,29.26,ESE,118,5.0,10.0,64,0.01,,,0.03,WUHU216DAVISVP2,2013-06-05 13:02:00,
2013-06-05 09:03:00,60.7,48.6,29.26,ESE,118,7.0,10.0,64,0.00,,,0.03,WUHU216DAVISVP2,2013-06-05 13:03:00,
2013-06-05 09:04:00,60.7,48.6,29.26,ESE,113,7.0,10.0,64,0.00,,,0.03,WUHU216DAVISVP2,2013-06-05 13:04:00,
2013-06-05 09:05:00,60.7,48.6,29.25,East,91,9.0,12.0,64,0.00,,,0.03,WUHU216DAVISVP2,2013-06-05 13:05:00,
2013-06-05 09:06:00,60.7,48.2,29.25,ESE,110,4.0,12.0,63,0.00,,,0.03,WUHU216DAVISVP2,2013-06-05 13:06:00,
2013-06-05 09:07:00,60.7,48.6,29.26,ESE,104,6.0,12.0,64,0.00,,,0.03,WUHU216DAVISVP2,2013-06-05 13:07:00,
2013-06-05 09:08:00,60.8,48.7,29.26,ESE,115,6.0,12.0,64,0.00,,,0.03,WUHU216DAVISVP2,2013-06-05 13:08:00,
2013-06-05 09:09:00,60.8,48.7,29.26,East,99,9.0,12.0,64,0.00,,,0.03,WUHU216DAVISVP2,2013-06-05 13:09:00,
2013-06-05 09:10:00,60.9,48.4,29.26,ESE,121,8.0,12.0,63,0.00,,,0.03,WUHU216DAVISVP2,2013-06-05 13:10:00,
2013-06-05 09:12:00,60.9,48.4,29.26,East,97,7.0,12.0,63,0.00,,,0.03,WUHU216DAVISVP2,2013-06-05 13:12:00,
2013-06-05 09:14:00,61.0,48.9,29.26,SE,126,8.0,12.0,64,0.00,,,0.03,WUHU216DAVISVP2,2013-06-05 13:14:00,
2013-06-05 09:16:00,61.2,49.1,29.26,East,79,7.0,12.0,64,0.00,,,0.03,WUHU216DAVISVP2,2013-06-05 13:16:00,
2013-06-05 09:17:00,61.2,49.1,29.26,ESE,102,7.0,12.0,64,0.00,,,0.03,WUHU216DAVISVP2,2013-06-05 13:17:00,
2013-06-05 09:19:00,61.3,48.7,29.26,ENE,62,8.0,12.0,63,0.00,,,0.03,WUHU216DAVISVP2,2013-06-05 13:19:00,
2013-06-05 09:21:00,61.4,49.3,29.26,East,83,5.0,12.0,64,0.00,,,0.03,WUHU216DAVISVP2,2013-06-05 13:21:00,
2013-06-05 09:22:00,61.6,49.5,29.26,SE,125,6.0,12.0,64,0.00,,,0.03,WUHU216DAVISVP2,2013-06-05 13:22:00,
2013-06-05 09:24:00,61.8,49.2,29.26,East,96,8.0,12.0,63,0.00,,,0.03,WUHU216DAVISVP2,2013-06-05 13:24:00,
2013-06-05 09:26:00,61.9,49.3,29.25,ESE,111,8.0,11.0,63,0.00,,,0.03,WUHU216DAVISVP2,2013-06-05 13:26:00,
2013-06-05 09:27:00,61.9,49.3,29.25,SE,124,9.0,11.0,63,0.00,,,0.03,WUHU216DAVISVP2,2013-06-05 13:27:00,
2013-06-05 09:28:00,61.9,49.3,29.25,East,99,9.0,11.0,63,0.00,,,0.03,WUHU216DAVISVP2,2013-06-05 13:28:00,
2013-06-05 09:29:00,61.9,49.3,29.25,East,96,5.0,11.0,63,0.00,,,0.03,WUHU216DAVISVP2,2013-06-05 13:29:00,
2013-06-05 09:30:00,62.0,49.4,29.25,East,101,6.0,11.0,63,0.00,,,0.03,WUHU216DAVISVP2,2013-06-05 13:30:00,
2013-06-05 09:32:00,62.1,49.5,29.25,ESE,116,9.0,11.0,63,0.00,,,0.03,WUHU216DAVISVP2,2013-06-05 13:32:00,
2013-06-05 09:33:00,62.1,49.5,29.25,ESE,106,6.0,11.0,63,0.00,,,0.03,WUHU216DAVISVP2,2013-06-05 13:33:00,
2013-06-05 09:34:00,62.1,49.5,29.25,ESE,111,6.0,11.0,63,0.00,,,0.03,WUHU216DAVISVP2,2013-06-05 13:34:00,
2013-06-05 09:35:00,62.2,49.6,29.25,ESE,122,4.0,11.0,63,0.00,,,0.03,WUHU216DAVISVP2,2013-06-05 13:35:00,
2013-06-05 09:37:00,62.3,49.7,29.25,East,101,7.0,10.0,63,0.00,,,0.03,WUHU216DAVISVP2,2013-06-05 13:37:00,
2013-06-05 09:38:00,62.4,49.8,29.25,ESE,109,8.0,10.0,63,0.00,,,0.03,WUHU216DAVISVP2,2013-06-05 13:38:00,
2013-06-05 09:39:00,62.5,49.9,29.25,East,91,6.0,10.0,63,0.00,,,0.03,WUHU216DAVISVP2,2013-06-05 13:39:00,
2013-06-05 09:41:00,62.5,49.5,29.25,ESE,112,10.0,10.0,62,0.00,,,0.03,WUHU216DAVISVP2,2013-06-05 13:41:00,
2013-06-05 09:42:00,62.5,49.5,29.25,SE,131,5.0,11.0,62,0.00,,,0.03,WUHU216DAVISVP2,2013-06-05 13:42:00,
2013-06-05 09:43:00,62.6,49.5,29.25,ESE,108,6.0,11.0,62,0.00,,,0.03,WUHU216DAVISVP2,2013-06-05 13:43:00,
2013-06-05 09:44:00,62.7,49.6,29.25,ESE,117,6.0,11.0,62,0.00,,,0.03,WUHU216DAVISVP2,2013-06-05 13:44:00,
2013-06-05 09:45:00,62.7,50.1,29.25,SE,129,6.0,11.0,63,0.00,,,0.03,WUHU216DAVISVP2,2013-06-05 13:45:00,
2013-06-05 09:46:00,62.8,50.2,29.25,SE,125,7.0,11.0,63,0.00,,,0.03,WUHU216DAVISVP2,2013-06-05 13:46:00,
2013-06-05 09:47:00,62.9,49.8,29.25,ENE,78,6.0,11.0,62,0.00,,,0.03,WUHU216DAVISVP2,2013-06-05 13:47:00,
2013-06-05 09:48:00,62.9,49.8,29.25,East,80,5.0,11.0,62,0.00,,,0.03,WUHU216DAVISVP2,2013-06-05 13:48:00,
2013-06-05 09:49:00,63.0,50.4,29.25,SE,134,7.0,11.0,63,0.00,,,0.03,WUHU216DAVISVP2,2013-06-05 13:49:00,
2013-06-05 09:50:00,63.0,50.4,29.25,SE,127,9.0,11.0,63,0.00,,,0.03,WUHU216DAVISVP2,2013-06-05 13:50:00,
2013-06-05 09:52:00,63.1,50.0,29.24,SE,126,7.0,11.0,62,0.00,,,0.03,WUHU216DAVISVP2,2013-06-05 13:52:00,
2013-06-05 09:53:00,63.1,50.0,29.24,SE,143,5.0,11.0,62,0.00,,,0.03,WUHU216DAVISVP2,2013-06-05 13:53:00,
2013-06-05 09:55:00,63.2,50.1,29.24,ESE,110,5.0,11.0,62,0.00,,,0.03,WUHU216DAVISVP2,2013-06-05 13:55:00,
2013-06-05 09:56:00,63.2,50.1,29.24,ESE,121,5.0,11.0,62,0.00,,,0.03,WUHU216DAVISVP2,2013-06-05 13:56:00,
2013-06-05 09:57:00,63.4,50.7,29.24,East,90,8.0,12.0,63,0.00,,,0.03,WUHU216DAVISVP2,2013-06-05 13:57:00,
2013-06-05 09:58:00,63.4,50.7,29.24,ESE,106,5.0,12.0,63,0.00,,,0.03,WUHU216DAVISVP2,2013-06-05 13:58:00,
2013-06-05 10:00:00,63.5,50.4,29.24,SE,142,8.0,12.0,62,0.00,,,0.03,WUHU216DAVISVP2,2013-06-05 14:00:00,
2013-06-05 10:01:00,63.5,50.4,29.24,ENE,75,6.0,12.0,62,0.00,,,0.03,WUHU216DAVISVP2,2013-06-05 14:01:00,
2013-06-05 10:02:00,63.6,50.5,29.24,ESE,103,11.0,12.0,62,0.00,,,0.03,WUHU216DAVISVP2,2013-06-05 14:02:00,
2013-06-05 10:03:00,63.6,50.5,29.24,ESE,108,6.0,12.0,62,0.00,,,0.03,WUHU216DAVISVP2,2013-06-05 14:03:00,
2013-06-05 10:05:00,63.8,50.7,29.24,ESE,122,5.0,12.0,62,0.00,,,0.03,WUHU216DAVISVP2,2013-06-05 14:05:00,
2013-06-05 10:07:00,63.8,50.7,29.23,ESE,113,8.0,12.0,62,0.00,,,0.03,WUHU216DAVISVP2,2013-06-05 14:07:00,
2013-06-05 10:08:00,63.9,50.3,29.24,ESE,116,10.0,12.0,61,0.00,,,0.03,WUHU216DAVISVP2,2013-06-05 14:08:00,
2013-06-05 10:10:00,64.0,50.4,29.24,ESE,109,7.0,12.0,61,0.00,,,0.03,WUHU216DAVISVP2,2013-06-05 14:10:00,
2013-06-05 10:12:00,64.0,50.9,29.24,SE,129,7.0,12.0,62,0.00,,,0.03,WUHU216DAVISVP2,2013-06-05 14:12:00,
2013-06-05 10:13:00,64.1,51.0,29.24,SE,138,8.0,12.0,62,0.00,,,0.03,WUHU216DAVISVP2,2013-06-05 14:13:00,
2013-06-05 10:14:00,64.2,51.1,29.24,ESE,116,5.0,12.0,62,0.00,,,0.03,WUHU216DAVISVP2,2013-06-05 14:14:00,
2013-06-05 10:16:00,64.3,50.7,29.24,ESE,123,7.0,12.0,61,0.00,,,0.03,WUHU216DAVISVP2,2013-06-05 14:16:00,
2013-06-05 10:17:00,64.4,51.3,29.24,ESE,122,5.0,12.0,62,0.00,,,0.03,WUHU216DAVISVP2,2013-06-05 14:17:00,
2013-06-05 10:18:00,64.5,51.4,29.24,East,100,7.0,12.0,62,0.00,,,0.03,WUHU216DAVISVP2,2013-06-05 14:18:00,
2013-06-05 10:19:00,64.6,51.0,29.23,SSE,147,4.0,12.0,61,0.00,,,0.03,WUHU216DAVISVP2,2013-06-05 14:19:00,
2013-06-05 10:21:00,64.7,50.6,29.23,SE,141,6.0,12.0,60,0.00,,,0.03,WUHU216DAVISVP2,2013-06-05 14:21:00,
2013-06-05 10:22:00,64.9,51.3,29.23,SE,135,4.0,11.0,61,0.00,,,0.03,WUHU216DAVISVP2,2013-06-05 14:22:00,
2013-06-05 10:23:00,64.9,51.3,29.23,NE,50,4.0,11.0,61,0.00,,,0.03,WUHU216DAVISVP2,2013-06-05 14:23:00,
2013-06-05 10:24:00,65.0,51.4,29.23,East,95,6.0,11.0,61,0.00,,,0.03,WUHU216DAVISVP2,2013-06-05 14:24:00,
2013-06-05 10:26:00,65.2,51.1,29.23,SE,140,7.0,11.0,60,0.00,,,0.03,WUHU216DAVISVP2,2013-06-05 14:26:00,
2013-06-05 10:27:00,65.3,51.2,29.23,ENE,61,2.0,11.0,60,0.00,,,0.03,WUHU216DAVISVP2,2013-06-05 14:27:00,
2013-06-05 10:28:00,65.4,51.8,29.23,SE,133,9.0,11.0,61,0.00,,,0.03,WUHU216DAVISVP2,2013-06-05 14:28:00,
2013-06-05 10:29:00,65.4,51.3,29.23,ESE,114,7.0,12.0,60,0.00,,,0.03,WUHU216DAVISVP2,2013-06-05 14:29:00,
2013-06-05 10:31:00,65.6,51.5,29.22,SSE,160,6.0,12.0,60,0.00,,,0.03,WUHU216DAVISVP2,2013-06-05 14:31:00,
2013-06-05 10:32:00,65.6,51.0,29.23,ESE,122,6.0,12.0,59,0.00,,,0.03,WUHU216DAVISVP2,2013-06-05 14:32:00,
2013-06-05 10:33:00,65.6,51.0,29.23,ESE,110,5.0,12.0,59,0.00,,,0.03,WUHU216DAVISVP2,2013-06-05 14:33:00,
2013-06-05 10:34:00,65.7,51.6,29.23,SSE,168,7.0,12.0,60,0.00,,,0.03,WUHU216DAVISVP2,2013-06-05 14:34:00,
2013-06-05 10:36:00,65.9,51.8,29.23,ESE,116,5.0,12.0,60,0.00,,,0.03,WUHU216DAVISVP2,2013-06-05 14:36:00,
2013-06-05 10:37:00,65.9,51.3,29.23,ENE,66,3.0,12.0,59,0.00,,,0.03,WUHU216DAVISVP2,2013-06-05 14:37:00,
2013-06-05 10:38:00,66.1,51.5,29.23,ESE,119,3.0,12.0,59,0.00,,,0.03,WUHU216DAVISVP2,2013-06-05 14:38:00,
2013-06-05 10:39:00,66.1,51.5,29.22,SSE,147,4.0,12.0,59,0.00,,,0.03,WUHU216DAVISVP2,2013-06-05 14:39:00,
2013-06-05 10:40:00,66.2,51.6,29.22,East,79,3.0,12.0,59,0.00,,,0.03,WUHU216DAVISVP2,2013-06-05 14:40:00,
2013-06-05 10:42:00,66.3,51.7,29.22,SE,137,0.0,12.0,59,0.00,,,0.03,WUHU216DAVISVP2,2013-06-05 14:42:00,
2013-06-05 10:44:00,66.5,52.3,29.22,SE,125,5.0,12.0,60,0.00,,,0.03,WUHU216DAVISVP2,2013-06-05 14:44:00,
2013-06-05 10:45:00,66.7,52.5,29.22,ESE,108,4.0,12.0,60,0.00,,,0.03,WUHU216DAVISVP2,2013-06-05 14:45:00,
2013-06-05 10:47:00,66.9,52.7,29.22,East,92,1.0,10.0,60,0.00,,,0.03,WUHU216DAVISVP2,2013-06-05 14:47:00,
2013-06-05 10:49:00,67.0,51.9,29.22,ESE,121,7.0,10.0,58,0.00,,,0.03,WUHU216DAVISVP2,2013-06-05 14:49:00,
2013-06-05 10:50:00,67.1,52.0,29.21,ESE,110,6.0,9.0,58,0.00,,,0.03,WUHU216DAVISVP2,2013-06-05 14:50:00,
2013-06-05 10:52:00,67.1,52.4,29.21,East,89,7.0,12.0,59,0.00,,,0.03,WUHU216DAVISVP2,2013-06-05 14:52:00,
2013-06-05 10:53:00,67.0,52.4,29.21,East,100,6.0,12.0,59,0.00,,,0.03,WUHU216DAVISVP2,2013-06-05 14:53:00,
2013-06-05 10:54:00,67.0,52.4,29.22,East,96,6.0,12.0,59,0.00,,,0.03,WUHU216DAVISVP2,2013-06-05 14:54:00,
2013-06-05 10:55:00,67.0,51.9,29.21,ENE,75,6.0,12.0,58,0.00,,,0.03,WUHU216DAVISVP2,2013-06-05 14:55:00,
2013-06-05 10:57:00,67.1,52.0,29.22,East,89,6.0,12.0,58,0.00,,,0.03,WUHU216DAVISVP2,2013-06-05 14:57:00,
2013-06-05 10:58:00,67.1,52.0,29.22,ENE,78,6.0,12.0,58,0.00,,,0.03,WUHU216DAVISVP2,2013-06-05 14:58:00,
2013-06-05 10:59:00,67.2,52.1,29.22,ESE,110,5.0,12.0,58,0.00,,,0.03,WUHU216DAVISVP2,2013-06-05 14:59:00,
2013-06-05 11:00:00,67.2,52.1,29.22,East,99,6.0,12.0,58,0.00,,,0.03,WUHU216DAVISVP2,2013-06-05 15:00:00,
2013-06-05 11:02:00,67.4,51.8,29.22,ESE,113,2.0,12.0,57,0.00,,,0.03,WUHU216DAVISVP2,2013-06-05 15:02:00,
2013-06-05 11:03:00,67.4,51.8,29.22,SSE,161,5.0,12.0,57,0.00,,,0.03,WUHU216DAVISVP2,2013-06-05 15:03:00,
2013-06-05 11:04:00,67.4,51.8,29.22,SSE,152,5.0,12.0,57,0.00,,,0.03,WUHU216DAVISVP2,2013-06-05 15:04:00,
2013-06-05 11:05:00,67.6,52.0,29.22,SE,139,2.0,12.0,57,0.00,,,0.03,WUHU216DAVISVP2,2013-06-05 15:05:00,
2013-06-05 11:06:00,67.6,52.4,29.22,ENE,75,0.0,12.0,58,0.00,,,0.03,WUHU216DAVISVP2,2013-06-05 15:06:00,
2013-06-05 11:07:00,67.7,52.1,29.22,SE,128,6.0,12.0,57,0.00,,,0.03,WUHU216DAVISVP2,2013-06-05 15:07:00,
2013-06-05 11:08:00,67.7,52.1,29.22,ESE,112,6.0,12.0,57,0.00,,,0.03,WUHU216DAVISVP2,2013-06-05 15:08:00,
2013-06-05 11:09:00,67.8,52.6,29.22,East,85,6.0,12.0,58,0.00,,,0.03,WUHU216DAVISVP2,2013-06-05 15:09:00,
2013-06-05 11:10:00,67.9,52.7,29.21,ESE,114,6.0,11.0,58,0.00,,,0.03,WUHU216DAVISVP2,2013-06-05 15:10:00,
2013-06-05 11:12:00,67.9,52.7,29.22,SE,142,6.0,10.0,58,0.00,,,0.03,WUHU216DAVISVP2,2013-06-05 15:12:00,
2013-06-05 11:13:00,68.0,52.8,29.22,East,98,4.0,10.0,58,0.00,,,0.03,WUHU216DAVISVP2,2013-06-05 15:13:00,
2013-06-05 11:14:00,68.1,52.4,29.22,ESE,104,4.0,10.0,57,0.00,,,0.03,WUHU216DAVISVP2,2013-06-05 15:14:00,
2013-06-05 11:15:00,68.2,52.5,29.22,SSE,157,5.0,10.0,57,0.00,,,0.03,WUHU216DAVISVP2,2013-06-05 15:15:00,
2013-06-05 11:17:00,68.3,52.6,29.22,ESE,119,5.0,10.0,57,0.00,,,0.03,WUHU216DAVISVP2,2013-06-05 15:17:00,
2013-06-05 11:18:00,68.4,52.2,29.21,East,91,2.0,10.0,56,0.00,,,0.03,WUHU216DAVISVP2,2013-06-05 15:18:00,
2013-06-05 11:19:00,68.5,52.8,29.22,East,92,0.0,10.0,57,0.00,,,0.03,WUHU216DAVISVP2,2013-06-05 15:19:00,
2013-06-05 11:21:00,68.7,53.5,29.22,SE,135,4.0,10.0,58,0.00,,,0.03,WUHU216DAVISVP2,2013-06-05 15:21:00,
2013-06-05 11:22:00,68.8,53.1,29.22,ESE,119,8.0,10.0,57,0.00,,,0.03,WUHU216DAVISVP2,2013-06-05 15:22:00,
2013-06-05 11:23:00,69.0,52.8,29.22,SE,133,5.0,10.0,56,0.00,,,0.03,WUHU216DAVISVP2,2013-06-05 15:23:00,
2013-06-05 11:24:00,69.0,52.8,29.21,ESE,119,5.0,10.0,56,0.00,,,0.03,WUHU216DAVISVP2,2013-06-05 15:24:00,
2013-06-05 11:26:00,69.0,52.3,29.21,SE,133,2.0,10.0,55,0.00,,,0.03,WUHU216DAVISVP2,2013-06-05 15:26:00,
2013-06-05 11:28:00,69.1,53.4,29.21,ESE,119,2.0,10.0,57,0.00,,,0.03,WUHU216DAVISVP2,2013-06-05 15:28:00,
2013-06-05 11:29:00,69.2,53.5,29.21,SE,141,6.0,10.0,57,0.00,,,0.03,WUHU216DAVISVP2,2013-06-05 15:29:00,
2013-06-05 11:31:00,69.2,52.5,29.21,ENE,64,3.0,9.0,55,0.00,,,0.03,WUHU216DAVISVP2,2013-06-05 15:31:00,
2013-06-05 11:33:00,69.3,53.1,29.21,East,81,4.0,9.0,56,0.00,,,0.03,WUHU216DAVISVP2,2013-06-05 15:33:00,
2013-06-05 11:34:00,69.5,53.7,29.21,ESE,114,5.0,9.0,57,0.00,,,0.03,WUHU216DAVISVP2,2013-06-05 15:34:00,
2013-06-05 11:37:00,69.7,53.4,29.21,South,189,6.0,9.0,56,0.00,,,0.03,WUHU216DAVISVP2,2013-06-05 15:37:00,
2013-06-05 11:38:00,69.8,53.0,29.21,South,184,1.0,9.0,55,0.00,,,0.03,WUHU216DAVISVP2,2013-06-05 15:38:00,
2013-06-05 11:39:00,69.9,53.6,29.21,South,179,4.0,9.0,56,0.00,,,0.03,WUHU216DAVISVP2,2013-06-05 15:39:00,
2013-06-05 11:40:00,69.9,53.6,29.21,South,179,4.0,9.0,56,0.00,,,0.03,WUHU216DAVISVP2,2013-06-05 15:40:00,
2013-06-05 11:42:00,69.9,53.1,29.21,South,188,6.0,9.0,55,0.00,,,0.03,WUHU216DAVISVP2,2013-06-05 15:42:00,
2013-06-05 11:43:00,69.9,53.1,29.21,South,188,5.0,10.0,55,0.00,,,0.03,WUHU216DAVISVP2,2013-06-05 15:43:00,
2013-06-05 11:44:00,69.8,53.5,29.21,East,95,6.0,10.0,56,0.00,,,0.03,WUHU216DAVISVP2,2013-06-05 15:44:00,
2013-06-05 11:45:00,69.9,53.1,29.21,NE,56,5.0,10.0,55,0.00,,,0.03,WUHU216DAVISVP2,2013-06-05 15:45:00,
2013-06-05 11:47:00,70.0,53.2,29.21,East,87,6.0,10.0,55,0.00,,,0.03,WUHU216DAVISVP2,2013-06-05 15:47:00,
2013-06-05 11:48:00,70.0,53.2,29.21,ESE,116,5.0,10.0,55,0.00,,,0.03,WUHU216DAVISVP2,2013-06-05 15:48:00,
2013-06-05 11:49:00,70.1,54.3,29.21,East,84,3.0,10.0,57,0.00,,,0.03,WUHU216DAVISVP2,2013-06-05 15:49:00,
2013-06-05 11:50:00,70.2,53.9,29.21,ESE,102,9.0,10.0,56,0.00,,,0.03,WUHU216DAVISVP2,2013-06-05 15:50:00,
2013-06-05 11:52:00,70.3,53.5,29.20,ESE,108,10.0,11.0,55,0.00,,,0.03,WUHU216DAVISVP2,2013-06-05 15:52:00,
2013-06-05 11:53:00,70.3,53.5,29.20,East,87,4.0,11.0,55,0.00,,,0.03,WUHU216DAVISVP2,2013-06-05 15:53:00,
2013-06-05 11:54:00,70.4,53.6,29.20,East,97,2.0,11.0,55,0.00,,,0.03,WUHU216DAVISVP2,2013-06-05 15:54:00,
2013-06-05 11:55:00,70.5,54.2,29.20,SE,134,4.0,11.0,56,0.00,,,0.03,WUHU216DAVISVP2,2013-06-05 15:55:00,
2013-06-05 11:57:00,70.7,53.4,29.20,SE,129,6.0,11.0,54,0.00,,,0.03,WUHU216DAVISVP2,2013-06-05 15:57:00,
2013-06-05 11:58:00,70.7,53.4,29.20,SE,128,9.0,11.0,54,0.00,,,0.03,WUHU216DAVISVP2,2013-06-05 15:58:00,
2013-06-05 12:00:00,70.7,53.4,29.20,SSE,151,5.0,11.0,54,0.00,,,0.03,WUHU216DAVISVP2,2013-06-05 16:00:00,
2013-06-05 12:01:00,70.7,53.4,29.20,East,87,2.0,11.0,54,0.00,,,0.03,WUHU216DAVISVP2,2013-06-05 16:01:00,
2013-06-05 12:03:00,70.8,54.0,29.20,East,100,4.0,11.0,55,0.00,,,0.03,WUHU216DAVISVP2,2013-06-05 16:03:00,
2013-06-05 12:05:00,70.9,53.5,29.20,ENE,75,4.0,11.0,54,0.00,,,0.03,WUHU216DAVISVP2,2013-06-05 16:05:00,
2013-06-05 12:06:00,71.0,54.2,29.20,ESE,116,7.0,11.0,55,0.00,,,0.03,WUHU216DAVISVP2,2013-06-05 16:06:00,
2013-06-05 12:08:00,71.0,53.6,29.20,SE,135,7.0,11.0,54,0.00,,,0.03,WUHU216DAVISVP2,2013-06-05 16:08:00,
2013-06-05 12:10:00,70.8,52.9,29.20,SE,124,6.0,11.0,53,0.00,,,0.03,WUHU216DAVISVP2,2013-06-05 16:10:00,
2013-06-05 12:11:00,70.8,53.5,29.20,NE,44,5.0,11.0,54,0.00,,,0.03,WUHU216DAVISVP2,2013-06-05 16:11:00,
2013-06-05 12:13:00,70.8,53.5,29.20,East,89,5.0,11.0,54,0.00,,,0.03,WUHU216DAVISVP2,2013-06-05 16:13:00,
2013-06-05 12:15:00,70.9,54.1,29.20,ENE,73,8.0,11.0,55,0.00,,,0.03,WUHU216DAVISVP2,2013-06-05 16:15:00,
2013-06-05 12:16:00,70.9,54.1,29.20,ESE,103,7.0,11.0,55,0.00,,,0.03,WUHU216DAVISVP2,2013-06-05 16:16:00,
2013-06-05 12:19:00,71.2,54.3,29.20,East,82,4.0,11.0,55,0.00,,,0.03,WUHU216DAVISVP2,2013-06-05 16:19:00,
2013-06-05 12:20:00,71.3,52.3,29.20,ESE,112,5.0,11.0,51,0.00,,,0.03,WUHU216DAVISVP2,2013-06-05 16:20:00,
2013-06-05 12:21:00,71.3,52.9,29.20,SE,129,7.0,11.0,52,0.00,,,0.03,WUHU216DAVISVP2,2013-06-05 16:21:00,
2013-06-05 12:22:00,71.3,52.9,29.20,SE,129,7.0,11.0,52,0.00,,,0.03,WUHU216DAVISVP2,2013-06-05 16:22:00,
2013-06-05 12:24:00,71.2,52.2,29.20,ENE,75,1.0,11.0,51,0.00,,,0.03,WUHU216DAVISVP2,2013-06-05 16:24:00,
2013-06-05 12:25:00,71.3,52.3,29.20,ESE,116,4.0,10.0,51,0.00,,,0.03,WUHU216DAVISVP2,2013-06-05 16:25:00,
2013-06-05 12:26:00,71.3,52.9,29.20,SE,125,5.0,10.0,52,0.00,,,0.03,WUHU216DAVISVP2,2013-06-05 16:26:00,
2013-06-05 12:27:00,71.3,52.3,29.20,ESE,117,5.0,10.0,51,0.00,,,0.03,WUHU216DAVISVP2,2013-06-05 16:27:00,
2013-06-05 12:29:00,71.4,53.5,29.21,ESE,120,7.0,10.0,53,0.00,,,0.03,WUHU216DAVISVP2,2013-06-05 16:29:00,
2013-06-05 12:31:00,71.6,53.1,29.21,SE,131,6.0,10.0,52,0.01,,,0.04,WUHU216DAVISVP2,2013-06-05 16:31:00,
2013-06-05 12:32:00,71.6,53.1,29.20,ESE,123,2.0,10.0,52,0.01,,,0.04,WUHU216DAVISVP2,2013-06-05 16:32:00,
2013-06-05 12:34:00,71.7,53.2,29.21,ESE,109,7.0,10.0,52,0.01,,,0.04,WUHU216DAVISVP2,2013-06-05 16:34:00,
2013-06-05 12:36:00,71.8,52.8,29.21,East,100,4.0,10.0,51,0.01,,,0.04,WUHU216DAVISVP2,2013-06-05 16:36:00,
2013-06-05 12:37:00,71.7,53.2,29.21,East,93,2.0,10.0,52,0.01,,,0.04,WUHU216DAVISVP2,2013-06-05 16:37:00,
2013-06-05 12:39:00,71.9,53.4,29.21,ESE,119,5.0,10.0,52,0.01,,,0.04,WUHU216DAVISVP2,2013-06-05 16:39:00,
2013-06-05 12:41:00,72.0,53.5,29.20,ESE,118,5.0,10.0,52,0.01,,,0.04,WUHU216DAVISVP2,2013-06-05 16:41:00,
2013-06-05 12:42:00,72.1,53.6,29.20,SSE,156,8.0,10.0,52,0.01,,,0.04,WUHU216DAVISVP2,2013-06-05 16:42:00,
2013-06-05 12:44:00,71.9,52.3,29.21,SE,129,0.0,10.0,50,0.01,,,0.04,WUHU216DAVISVP2,2013-06-05 16:44:00,
2013-06-05 12:46:00,72.0,52.4,29.21,ESE,104,7.0,10.0,50,0.01,,,0.04,WUHU216DAVISVP2,2013-06-05 16:46:00,
2013-06-05 12:47:00,72.0,52.4,29.21,SE,132,4.0,10.0,50,0.01,,,0.04,WUHU216DAVISVP2,2013-06-05 16:47:00,
2013-06-05 12:48:00,72.1,53.1,29.21,East,99,6.0,10.0,51,0.01,,,0.04,WUHU216DAVISVP2,2013-06-05 16:48:00,
2013-06-05 12:49:00,72.2,53.7,29.21,East,98,7.0,9.0,52,0.01,,,0.04,WUHU216DAVISVP2,2013-06-05 16:49:00,
2013-06-05 12:51:00,72.3,53.2,29.20,East,79,4.0,9.0,51,0.01,,,0.04,WUHU216DAVISVP2,2013-06-05 16:51:00,
2013-06-05 12:52:00,72.4,53.3,29.21,East,93,6.0,9.0,51,0.01,,,0.04,WUHU216DAVISVP2,2013-06-05 16:52:00,
2013-06-05 12:53:00,72.5,52.9,29.21,ESE,106,3.0,9.0,50,0.01,,,0.04,WUHU216DAVISVP2,2013-06-05 16:53:00,
2013-06-05 12:55:00,72.5,52.9,29.21,ESE,120,5.0,9.0,50,0.01,,,0.04,WUHU216DAVISVP2,2013-06-05 16:55:00,
2013-06-05 12:57:00,72.6,53.0,29.21,South,187,7.0,9.0,50,0.01,,,0.04,WUHU216DAVISVP2,2013-06-05 16:57:00,
2013-06-05 12:58:00,72.6,52.4,29.21,SSW,210,3.0,9.0,49,0.01,,,0.04,WUHU216DAVISVP2,2013-06-05 16:58:00,
2013-06-05 13:00:00,72.5,52.9,29.20,SSW,210,1.0,9.0,50,0.01,,,0.04,WUHU216DAVISVP2,2013-06-05 17:00:00,
2013-06-05 13:02:00,72.5,52.9,29.20,ESE,112,2.0,9.0,50,0.01,,,0.04,WUHU216DAVISVP2,2013-06-05 17:02:00,
2013-06-05 13:03:00,72.5,52.3,29.20,ESE,120,4.0,9.0,49,0.01,,,0.04,WUHU216DAVISVP2,2013-06-05 17:03:00,
2013-06-05 13:05:00,72.6,52.4,29.20,South,178,4.0,9.0,49,0.01,,,0.04,WUHU216DAVISVP2,2013-06-05 17:05:00,
2013-06-05 13:07:00,72.7,52.5,29.20,SSE,167,2.0,9.0,49,0.01,,,0.04,WUHU216DAVISVP2,2013-06-05 17:07:00,
2013-06-05 13:08:00,72.7,53.1,29.20,South,185,3.0,9.0,50,0.01,,,0.04,WUHU216DAVISVP2,2013-06-05 17:08:00,
2013-06-05 13:09:00,72.7,53.1,29.20,SSE,152,4.0,9.0,50,0.01,,,0.04,WUHU216DAVISVP2,2013-06-05 17:09:00,
2013-06-05 13:10:00,72.8,53.7,29.20,ESE,122,0.0,9.0,51,0.01,,,0.04,WUHU216DAVISVP2,2013-06-05 17:10:00,
2013-06-05 13:12:00,73.0,53.9,29.20,ENE,78,4.0,9.0,51,0.01,,,0.04,WUHU216DAVISVP2,2013-06-05 17:12:00,
2013-06-05 13:13:00,73.1,54.0,29.20,ESE,116,6.0,9.0,51,0.01,,,0.04,WUHU216DAVISVP2,2013-06-05 17:13:00,
2013-06-05 13:14:00,73.2,54.1,29.20,ENE,67,4.0,9.0,51,0.01,,,0.04,WUHU216DAVISVP2,2013-06-05 17:14:00,
2013-06-05 13:15:00,73.3,53.6,29.20,NE,48,5.0,9.0,50,0.01,,,0.04,WUHU216DAVISVP2,2013-06-05 17:15:00,
2013-06-05 13:18:00,73.4,54.3,29.20,SSE,163,4.0,10.0,51,0.01,,,0.04,WUHU216DAVISVP2,2013-06-05 17:18:00,
2013-06-05 13:19:00,73.4,53.1,29.19,East,99,6.0,10.0,49,0.01,,,0.04,WUHU216DAVISVP2,2013-06-05 17:19:00,
2013-06-05 13:20:00,73.3,53.0,29.20,East,99,6.0,10.0,49,0.01,,,0.04,WUHU216DAVISVP2,2013-06-05 17:20:00,
2013-06-05 13:21:00,73.3,53.0,29.20,SE,133,5.0,10.0,49,0.01,,,0.04,WUHU216DAVISVP2,2013-06-05 17:21:00,
2013-06-05 13:23:00,73.4,53.7,29.20,East,91,4.0,10.0,50,0.01,,,0.04,WUHU216DAVISVP2,2013-06-05 17:23:00,
2013-06-05 13:24:00,73.4,54.3,29.20,SSE,160,11.0,11.0,51,0.01,,,0.04,WUHU216DAVISVP2,2013-06-05 17:24:00,
2013-06-05 13:25:00,73.4,53.1,29.19,ESE,115,4.0,11.0,49,0.01,,,0.04,WUHU216DAVISVP2,2013-06-05 17:25:00,
2013-06-05 13:27:00,73.4,52.6,29.19,East,90,4.0,11.0,48,0.01,,,0.04,WUHU216DAVISVP2,2013-06-05 17:27:00,
2013-06-05 13:28:00,73.4,52.6,29.19,East,84,4.0,11.0,48,0.01,,,0.04,WUHU216DAVISVP2,2013-06-05 17:28:00,
2013-06-05 13:29:00,73.5,52.6,29.19,East,94,7.0,11.0,48,0.01,,,0.04,WUHU216DAVISVP2,2013-06-05 17:29:00,
2013-06-05 13:30:00,73.5,52.6,29.19,ESE,113,8.0,11.0,48,0.01,,,0.04,WUHU216DAVISVP2,2013-06-05 17:30:00,
2013-06-05 13:31:00,73.5,52.6,29.19,ESE,120,7.0,11.0,48,0.00,,,0.04,WUHU216DAVISVP2,2013-06-05 17:31:00,
2013-06-05 13:32:00,73.5,52.6,29.19,East,90,9.0,11.0,48,0.00,,,0.04,WUHU216DAVISVP2,2013-06-05 17:32:00,
2013-06-05 13:33:00,73.3,53.0,29.19,SSE,165,7.0,11.0,49,0.00,,,0.04,WUHU216DAVISVP2,2013-06-05 17:33:00,
2013-06-05 13:34:00,73.3,53.0,29.19,SSW,201,5.0,11.0,49,0.00,,,0.04,WUHU216DAVISVP2,2013-06-05 17:34:00,
2013-06-05 13:35:00,73.3,52.5,29.19,South,181,7.0,11.0,48,0.00,,,0.04,WUHU216DAVISVP2,2013-06-05 17:35:00,
2013-06-05 13:36:00,73.3,53.0,29.18,SW,232,3.0,11.0,49,0.00,,,0.04,WUHU216DAVISVP2,2013-06-05 17:36:00,
2013-06-05 13:37:00,73.4,52.6,29.19,ESE,115,7.0,11.0,48,0.00,,,0.04,WUHU216DAVISVP2,2013-06-05 17:37:00,
2013-06-05 13:39:00,73.4,53.1,29.19,SSE,157,5.0,11.0,49,0.00,,,0.04,WUHU216DAVISVP2,2013-06-05 17:39:00,
2013-06-05 13:40:00,73.4,52.6,29.19,South,177,2.0,11.0,48,0.00,,,0.04,WUHU216DAVISVP2,2013-06-05 17:40:00,
2013-06-05 13:42:00,73.4,52.6,29.19,West,262,2.0,11.0,48,0.00,,,0.04,WUHU216DAVISVP2,2013-06-05 17:42:00,
2013-06-05 13:44:00,73.4,52.6,29.19,NNW,337,0.0,11.0,48,0.00,,,0.04,WUHU216DAVISVP2,2013-06-05 17:44:00,
2013-06-05 13:45:00,73.6,53.3,29.19,ESE,102,2.0,11.0,49,0.00,,,0.04,WUHU216DAVISVP2,2013-06-05 17:45:00,
2013-06-05 13:46:00,73.7,54.0,29.19,ESE,102,2.0,11.0,50,0.00,,,0.04,WUHU216DAVISVP2,2013-06-05 17:46:00,
2013-06-05 13:47:00,73.9,54.2,29.19,East,100,4.0,11.0,50,0.00,,,0.04,WUHU216DAVISVP2,2013-06-05 17:47:00,
2013-06-05 13:49:00,74.1,53.2,29.18,ENE,77,7.0,12.0,48,0.00,,,0.04,WUHU216DAVISVP2,2013-06-05 17:49:00,
2013-06-05 13:50:00,74.0,52.5,29.18,ESE,112,9.0,12.0,47,0.00,,,0.04,WUHU216DAVISVP2,2013-06-05 17:50:00,
2013-06-05 13:51:00,73.9,51.8,29.18,East,97,8.0,12.0,46,0.00,,,0.04,WUHU216DAVISVP2,2013-06-05 17:51:00,
2013-06-05 13:52:00,73.8,51.7,29.18,ESE,120,5.0,12.0,46,0.00,,,0.04,WUHU216DAVISVP2,2013-06-05 17:52:00,
2013-06-05 13:53:00,73.8,53.5,29.18,South,170,7.0,12.0,49,0.00,,,0.04,WUHU216DAVISVP2,2013-06-05 17:53:00,
2013-06-05 13:55:00,73.9,53.0,29.18,WSW,238,2.0,12.0,48,0.00,,,0.04,WUHU216DAVISVP2,2013-06-05 17:55:00,
2013-06-05 13:56:00,73.9,53.0,29.18,SSE,160,1.0,12.0,48,0.00,,,0.04,WUHU216DAVISVP2,2013-06-05 17:56:00,
2013-06-05 13:57:00,73.9,53.0,29.18,SE,141,2.0,12.0,48,0.00,,,0.04,WUHU216DAVISVP2,2013-06-05 17:57:00,
2013-06-05 13:58:00,74.0,52.5,29.18,SE,140,5.0,12.0,47,0.00,,,0.04,WUHU216DAVISVP2,2013-06-05 17:58:00,
2013-06-05 14:00:00,73.9,52.4,29.18,East,91,6.0,12.0,47,0.00,,,0.04,WUHU216DAVISVP2,2013-06-05 18:00:00,
2013-06-05 14:02:00,73.9,52.4,29.18,ESE,106,5.0,12.0,47,0.00,,,0.04,WUHU216DAVISVP2,2013-06-05 18:02:00,
2013-06-05 14:04:00,74.0,53.1,29.18,South,170,3.0,12.0,48,0.00,,,0.04,WUHU216DAVISVP2,2013-06-05 18:04:00,
2013-06-05 14:05:00,74.2,53.9,29.19,ESE,106,2.0,12.0,49,0.00,,,0.04,WUHU216DAVISVP2,2013-06-05 18:05:00,
2013-06-05 14:07:00,74.4,54.1,29.19,SW,233,8.0,12.0,49,0.00,,,0.04,WUHU216DAVISVP2,2013-06-05 18:07:00,
2013-06-05 14:09:00,74.6,53.1,29.18,East,84,4.0,11.0,47,0.00,,,0.04,WUHU216DAVISVP2,2013-06-05 18:09:00,
2013-06-05 14:10:00,74.7,53.8,29.18,South,185,4.0,11.0,48,0.00,,,0.04,WUHU216DAVISVP2,2013-06-05 18:10:00,
2013-06-05 14:12:00,74.7,53.2,29.18,SE,133,5.0,11.0,47,0.00,,,0.04,WUHU216DAVISVP2,2013-06-05 18:12:00,
2013-06-05 14:14:00,74.6,52.5,29.18,ESE,103,6.0,11.0,46,0.00,,,0.04,WUHU216DAVISVP2,2013-06-05 18:14:00,
2013-06-05 14:16:00,74.6,53.1,29.18,ESE,105,4.0,11.0,47,0.00,,,0.04,WUHU216DAVISVP2,2013-06-05 18:16:00,
2013-06-05 14:17:00,74.7,53.8,29.18,South,184,8.0,11.0,48,0.00,,,0.04,WUHU216DAVISVP2,2013-06-05 18:17:00,
2013-06-05 14:19:00,74.8,53.2,29.18,SE,129,5.0,11.0,47,0.00,,,0.04,WUHU216DAVISVP2,2013-06-05 18:19:00,
2013-06-05 14:21:00,74.8,53.8,29.18,ENE,62,2.0,11.0,48,0.00,,,0.04,WUHU216DAVISVP2,2013-06-05 18:21:00,
2013-06-05 14:22:00,74.9,53.9,29.18,East,97,1.0,11.0,48,0.00,,,0.04,WUHU216DAVISVP2,2013-06-05 18:22:00,
2013-06-05 14:23:00,74.9,53.3,29.18,ESE,110,0.0,11.0,47,0.00,,,0.04,WUHU216DAVISVP2,2013-06-05 18:23:00,
2013-06-05 14:24:00,75.1,52.9,29.18,SSE,160,2.0,11.0,46,0.00,,,0.04,WUHU216DAVISVP2,2013-06-05 18:24:00,
2013-06-05 14:27:00,74.9,52.7,29.18,ESE,120,1.0,15.0,46,0.00,,,0.04,WUHU216DAVISVP2,2013-06-05 18:27:00,
2013-06-05 14:28:00,74.8,52.6,29.18,ENE,62,7.0,15.0,46,0.00,,,0.04,WUHU216DAVISVP2,2013-06-05 18:28:00,
2013-06-05 14:29:00,74.7,53.2,29.18,ENE,58,1.0,15.0,47,0.00,,,0.04,WUHU216DAVISVP2,2013-06-05 18:29:00,
2013-06-05 14:32:00,74.7,53.2,29.17,SSE,161,8.0,15.0,47,0.00,,,0.04,WUHU216DAVISVP2,2013-06-05 18:32:00,
2013-06-05 14:33:00,74.8,53.8,29.17,SSW,201,0.0,15.0,48,0.00,,,0.04,WUHU216DAVISVP2,2013-06-05 18:33:00,
2013-06-05 14:35:00,74.9,53.3,29.17,SSE,154,1.0,15.0,47,0.00,,,0.04,WUHU216DAVISVP2,2013-06-05 18:35:00,
2013-06-05 14:37:00,74.9,53.3,29.17,SSE,152,8.0,15.0,47,0.00,,,0.04,WUHU216DAVISVP2,2013-06-05 18:37:00,
2013-06-05 14:38:00,74.9,53.3,29.17,SSE,149,5.0,15.0,47,0.00,,,0.04,WUHU216DAVISVP2,2013-06-05 18:38:00,
2013-06-05 14:40:00,74.9,53.9,29.17,ESE,112,7.0,15.0,48,0.00,,,0.04,WUHU216DAVISVP2,2013-06-05 18:40:00,
2013-06-05 14:42:00,74.9,52.1,29.17,ESE,115,2.0,15.0,45,0.00,,,0.04,WUHU216DAVISVP2,2013-06-05 18:42:00,
2013-06-05 14:43:00,74.9,52.1,29.17,ESE,115,2.0,15.0,45,0.00,,,0.04,WUHU216DAVISVP2,2013-06-05 18:43:00,
2013-06-05 14:45:00,75.0,51.6,29.17,SW,217,1.0,10.0,44,0.00,,,0.04,WUHU216DAVISVP2,2013-06-05 18:45:00,
2013-06-05 14:47:00,75.0,52.2,29.17,South,169,9.0,10.0,45,0.00,,,0.04,WUHU216DAVISVP2,2013-06-05 18:47:00,
2013-06-05 14:48:00,75.0,52.2,29.17,SE,140,6.0,10.0,45,0.00,,,0.04,WUHU216DAVISVP2,2013-06-05 18:48:00,
2013-06-05 14:50:00,74.8,52.0,29.17,South,181,5.0,10.0,45,0.00,,,0.04,WUHU216DAVISVP2,2013-06-05 18:50:00,
2013-06-05 14:52:00,74.7,51.9,29.16,SW,214,2.0,10.0,45,0.00,,,0.04,WUHU216DAVISVP2,2013-06-05 18:52:00,
2013-06-05 14:53:00,74.6,51.8,29.16,SE,141,2.0,10.0,45,0.00,,,0.04,WUHU216DAVISVP2,2013-06-05 18:53:00,
2013-06-05 14:54:00,74.6,52.5,29.16,SSW,211,4.0,10.0,46,0.00,,,0.04,WUHU216DAVISVP2,2013-06-05 18:54:00,
2013-06-05 14:55:00,74.8,53.2,29.16,ESE,118,5.0,10.0,47,0.00,,,0.04,WUHU216DAVISVP2,2013-06-05 18:55:00,
2013-06-05 14:57:00,74.9,52.1,29.16,SW,216,9.0,11.0,45,0.00,,,0.04,WUHU216DAVISVP2,2013-06-05 18:57:00,
2013-06-05 14:58:00,75.0,52.8,29.16,East,87,3.0,14.0,46,0.00,,,0.04,WUHU216DAVISVP2,2013-06-05 18:58:00,
2013-06-05 14:59:00,75.0,52.8,29.16,South,189,1.0,14.0,46,0.00,,,0.04,WUHU216DAVISVP2,2013-06-05 18:59:00,
2013-06-05 15:01:00,75.2,52.4,29.16,East,83,1.0,14.0,45,0.00,,,0.04,WUHU216DAVISVP2,2013-06-05 19:01:00,
2013-06-05 15:02:00,75.3,53.1,29.16,NE,56,7.0,14.0,46,0.00,,,0.04,WUHU216DAVISVP2,2013-06-05 19:02:00,
2013-06-05 15:03:00,75.4,52.6,29.16,ESE,106,12.0,14.0,45,0.00,,,0.04,WUHU216DAVISVP2,2013-06-05 19:03:00,
2013-06-05 15:04:00,75.3,52.5,29.16,East,79,5.0,14.0,45,0.00,,,0.04,WUHU216DAVISVP2,2013-06-05 19:04:00,
2013-06-05 15:06:00,75.3,52.5,29.16,NE,48,5.0,14.0,45,0.00,,,0.04,WUHU216DAVISVP2,2013-06-05 19:06:00,
2013-06-05 15:08:00,75.3,52.5,29.16,ESE,110,10.0,14.0,45,0.00,,,0.04,WUHU216DAVISVP2,2013-06-05 19:08:00,
2013-06-05 15:09:00,75.3,52.5,29.16,South,174,7.0,14.0,45,0.00,,,0.04,WUHU216DAVISVP2,2013-06-05 19:09:00,
2013-06-05 15:11:00,75.3,53.1,29.16,SSE,166,2.0,14.0,46,0.00,,,0.04,WUHU216DAVISVP2,2013-06-05 19:11:00,
2013-06-05 15:13:00,75.3,51.9,29.16,SSE,166,0.0,14.0,44,0.00,,,0.04,WUHU216DAVISVP2,2013-06-05 19:13:00,
2013-06-05 15:14:00,75.3,51.9,29.16,WNW,282,5.0,14.0,44,0.00,,,0.04,WUHU216DAVISVP2,2013-06-05 19:14:00,
2013-06-05 15:15:00,75.4,52.6,29.16,ESE,106,8.0,14.0,45,0.00,,,0.04,WUHU216DAVISVP2,2013-06-05 19:15:00,
2013-06-05 15:17:00,75.5,52.7,29.16,ESE,114,7.0,13.0,45,0.00,,,0.04,WUHU216DAVISVP2,2013-06-05 19:17:00,
2013-06-05 15:18:00,75.5,52.0,29.16,ENE,70,4.0,13.0,44,0.00,,,0.04,WUHU216DAVISVP2,2013-06-05 19:18:00,
2013-06-05 15:19:00,75.4,51.3,29.15,East,79,5.0,13.0,43,0.00,,,0.04,WUHU216DAVISVP2,2013-06-05 19:19:00,
2013-06-05 15:20:00,75.4,51.3,29.15,ENE,75,6.0,13.0,43,0.00,,,0.04,WUHU216DAVISVP2,2013-06-05 19:20:00,
2013-06-05 15:22:00,75.4,51.9,29.15,ESE,110,0.0,13.0,44,0.00,,,0.04,WUHU216DAVISVP2,2013-06-05 19:22:00,
2013-06-05 15:23:00,75.6,52.8,29.15,South,176,5.0,11.0,45,0.00,,,0.04,WUHU216DAVISVP2,2013-06-05 19:23:00,
2013-06-05 15:24:00,75.6,52.8,29.15,SSE,155,7.0,11.0,45,0.00,,,0.04,WUHU216DAVISVP2,2013-06-05 19:24:00,
2013-06-05 15:25:00,75.6,52.1,29.15,SSE,165,7.0,11.0,44,0.00,,,0.04,WUHU216DAVISVP2,2013-06-05 19:25:00,
2013-06-05 15:28:00,75.4,51.9,29.15,South,169,4.0,11.0,44,0.00,,,0.04,WUHU216DAVISVP2,2013-06-05 19:28:00,
2013-06-05 15:29:00,75.3,51.9,29.15,SW,224,0.0,13.0,44,0.00,,,0.04,WUHU216DAVISVP2,2013-06-05 19:29:00,
2013-06-05 15:30:00,75.3,51.9,29.15,SSE,159,2.0,13.0,44,0.00,,,0.04,WUHU216DAVISVP2,2013-06-05 19:30:00,
2013-06-05 15:33:00,75.4,51.3,29.14,SSE,164,3.0,13.0,43,0.00,,,0.04,WUHU216DAVISVP2,2013-06-05 19:33:00,
2013-06-05 15:34:00,75.4,51.9,29.14,WSW,241,4.0,13.0,44,0.00,,,0.04,WUHU216DAVISVP2,2013-06-05 19:34:00,
2013-06-05 15:35:00,75.6,52.8,29.15,SE,125,4.0,13.0,45,0.00,,,0.04,WUHU216DAVISVP2,2013-06-05 19:35:00,
2013-06-05 15:38:00,75.8,52.9,29.14,SSE,152,7.0,13.0,45,0.00,,,0.04,WUHU216DAVISVP2,2013-06-05 19:38:00,
2013-06-05 15:39:00,75.8,52.9,29.14,SE,141,8.0,13.0,45,0.00,,,0.04,WUHU216DAVISVP2,2013-06-05 19:39:00,
2013-06-05 15:41:00,75.7,52.2,29.14,ESE,108,5.0,13.0,44,0.00,,,0.04,WUHU216DAVISVP2,2013-06-05 19:41:00,
2013-06-05 15:43:00,75.7,51.6,29.14,East,96,4.0,13.0,43,0.00,,,0.04,WUHU216DAVISVP2,2013-06-05 19:43:00,
2013-06-05 15:44:00,75.7,51.6,29.14,ESE,120,2.0,13.0,43,0.00,,,0.04,WUHU216DAVISVP2,2013-06-05 19:44:00,
2013-06-05 15:45:00,75.7,51.6,29.14,SE,146,2.0,13.0,43,0.00,,,0.04,WUHU216DAVISVP2,2013-06-05 19:45:00,
2013-06-05 15:47:00,75.7,50.9,29.14,SSE,162,6.0,11.0,42,0.00,,,0.04,WUHU216DAVISVP2,2013-06-05 19:47:00,
2013-06-05 15:48:00,75.7,51.6,29.14,NE,52,1.0,11.0,43,0.00,,,0.04,WUHU216DAVISVP2,2013-06-05 19:48:00,
2013-06-05 15:49:00,75.7,51.6,29.14,SE,125,3.0,10.0,43,0.00,,,0.04,WUHU216DAVISVP2,2013-06-05 19:49:00,
2013-06-05 15:50:00,75.8,51.7,29.14,ESE,108,7.0,10.0,43,0.00,,,0.04,WUHU216DAVISVP2,2013-06-05 19:50:00,
2013-06-05 15:52:00,76.0,53.7,29.14,South,184,3.0,10.0,46,0.00,,,0.04,WUHU216DAVISVP2,2013-06-05 19:52:00,
2013-06-05 15:53:00,76.2,52.0,29.14,SSE,148,2.0,10.0,43,0.00,,,0.04,WUHU216DAVISVP2,2013-06-05 19:53:00,
2013-06-05 15:54:00,76.3,52.1,29.14,SSE,148,0.0,10.0,43,0.00,,,0.04,WUHU216DAVISVP2,2013-06-05 19:54:00,
2013-06-05 15:55:00,76.4,52.2,29.14,ESE,113,2.0,10.0,43,0.00,,,0.04,WUHU216DAVISVP2,2013-06-05 19:55:00,
2013-06-05 15:57:00,76.6,53.0,29.14,SE,139,4.0,13.0,44,0.01,,,0.05,WUHU216DAVISVP2,2013-06-05 19:57:00,
2013-06-05 15:59:00,76.7,51.8,29.14,ESE,108,6.0,13.0,42,0.01,,,0.05,WUHU216DAVISVP2,2013-06-05 19:59:00,
2013-06-05 16:00:00,76.6,51.1,29.14,ESE,110,6.0,13.0,41,0.01,,,0.05,WUHU216DAVISVP2,2013-06-05 20:00:00,
2013-06-05 16:02:00,76.4,51.6,29.14,East,95,4.0,13.0,42,0.01,,,0.05,WUHU216DAVISVP2,2013-06-05 20:02:00,
2013-06-05 16:04:00,76.2,50.7,29.14,NE,56,5.0,13.0,41,0.01,,,0.05,WUHU216DAVISVP2,2013-06-05 20:04:00,
2013-06-05 16:05:00,76.2,51.4,29.14,ENE,61,4.0,13.0,42,0.01,,,0.05,WUHU216DAVISVP2,2013-06-05 20:05:00,
2013-06-05 16:06:00,76.1,51.3,29.14,ESE,109,3.0,13.0,42,0.01,,,0.05,WUHU216DAVISVP2,2013-06-05 20:06:00,
2013-06-05 16:07:00,76.2,52.0,29.14,ESE,122,0.0,13.0,43,0.01,,,0.05,WUHU216DAVISVP2,2013-06-05 20:07:00,
2013-06-05 16:10:00,76.4,51.6,29.14,East,95,6.0,13.0,42,0.01,,,0.05,WUHU216DAVISVP2,2013-06-05 20:10:00,
2013-06-05 16:12:00,76.3,50.8,29.14,East,97,8.0,13.0,41,0.01,,,0.05,WUHU216DAVISVP2,2013-06-05 20:12:00,
2013-06-05 16:15:00,76.4,51.6,29.14,SSE,165,2.0,13.0,42,0.01,,,0.05,WUHU216DAVISVP2,2013-06-05 20:15:00,
2013-06-05 16:16:00,76.4,51.6,29.14,East,97,7.0,11.0,42,0.01,,,0.05,WUHU216DAVISVP2,2013-06-05 20:16:00,
2013-06-05 16:17:00,76.4,50.9,29.14,ESE,122,6.0,11.0,41,0.01,,,0.05,WUHU216DAVISVP2,2013-06-05 20:17:00,
2013-06-05 16:18:00,76.4,50.9,29.14,East,101,6.0,11.0,41,0.01,,,0.05,WUHU216DAVISVP2,2013-06-05 20:18:00,
2013-06-05 16:20:00,76.4,51.6,29.14,East,91,7.0,11.0,42,0.01,,,0.05,WUHU216DAVISVP2,2013-06-05 20:20:00,
2013-06-05 16:21:00,76.4,51.6,29.14,East,86,6.0,11.0,42,0.01,,,0.05,WUHU216DAVISVP2,2013-06-05 20:21:00,
2013-06-05 16:22:00,76.3,51.5,29.14,East,100,8.0,13.0,42,0.01,,,0.05,WUHU216DAVISVP2,2013-06-05 20:22:00,
2013-06-05 16:23:00,76.4,51.6,29.14,South,186,4.0,13.0,42,0.01,,,0.05,WUHU216DAVISVP2,2013-06-05 20:23:00,
2013-06-05 16:25:00,76.4,51.6,29.13,ESE,118,4.0,13.0,42,0.01,,,0.05,WUHU216DAVISVP2,2013-06-05 20:25:00,
2013-06-05 16:26:00,76.4,51.6,29.13,SW,214,2.0,13.0,42,0.01,,,0.05,WUHU216DAVISVP2,2013-06-05 20:26:00,
2013-06-05 16:28:00,76.2,50.7,29.13,SW,220,4.0,13.0,41,0.01,,,0.05,WUHU216DAVISVP2,2013-06-05 20:28:00,
2013-06-05 16:30:00,76.2,50.7,29.13,SSW,205,3.0,13.0,41,0.01,,,0.05,WUHU216DAVISVP2,2013-06-05 20:30:00,
2013-06-05 16:31:00,76.2,50.7,29.13,SSW,203,5.0,13.0,41,0.01,,,0.05,WUHU216DAVISVP2,2013-06-05 20:31:00,
2013-06-05 16:33:00,76.2,50.7,29.13,South,185,6.0,13.0,41,0.01,,,0.05,WUHU216DAVISVP2,2013-06-05 20:33:00,
2013-06-05 16:36:00,76.2,50.7,29.13,East,97,4.0,16.0,41,0.01,,,0.05,WUHU216DAVISVP2,2013-06-05 20:36:00,
2013-06-05 16:37:00,76.3,51.5,29.13,South,174,2.0,16.0,42,0.01,,,0.05,WUHU216DAVISVP2,2013-06-05 20:37:00,
2013-06-05 16:38:00,76.4,51.6,29.13,SSE,147,3.0,16.0,42,0.01,,,0.05,WUHU216DAVISVP2,2013-06-05 20:38:00,
2013-06-05 16:41:00,76.6,51.7,29.14,SE,145,9.0,16.0,42,0.01,,,0.05,WUHU216DAVISVP2,2013-06-05 20:41:00,
2013-06-05 16:42:00,76.6,51.1,29.13,ESE,112,2.0,16.0,41,0.01,,,0.05,WUHU216DAVISVP2,2013-06-05 20:42:00,
2013-06-05 16:43:00,76.6,51.1,29.13,ESE,112,1.0,16.0,41,0.01,,,0.05,WUHU216DAVISVP2,2013-06-05 20:43:00,
2013-06-05 16:44:00,76.7,51.2,29.13,ENE,76,5.0,16.0,41,0.01,,,0.05,WUHU216DAVISVP2,2013-06-05 20:44:00,
2013-06-05 16:46:00,76.9,50.6,29.13,ESE,119,5.0,16.0,40,0.01,,,0.05,WUHU216DAVISVP2,2013-06-05 20:46:00,
2013-06-05 16:47:00,76.9,50.6,29.13,ESE,120,4.0,16.0,40,0.01,,,0.05,WUHU216DAVISVP2,2013-06-05 20:47:00,
2013-06-05 16:48:00,76.8,50.6,29.13,ESE,104,5.0,16.0,40,0.01,,,0.05,WUHU216DAVISVP2,2013-06-05 20:48:00,
2013-06-05 16:49:00,76.9,50.6,29.13,ESE,121,3.0,16.0,40,0.01,,,0.05,WUHU216DAVISVP2,2013-06-05 20:49:00,
2013-06-05 16:52:00,76.9,50.6,29.13,ESE,108,7.0,16.0,40,0.01,,,0.05,WUHU216DAVISVP2,2013-06-05 20:52:00,
2013-06-05 16:53:00,76.9,50.6,29.13,ESE,102,6.0,16.0,40,0.01,,,0.05,WUHU216DAVISVP2,2013-06-05 20:53:00,
2013-06-05 16:54:00,76.8,50.6,29.13,ENE,58,5.0,16.0,40,0.01,,,0.05,WUHU216DAVISVP2,2013-06-05 20:54:00,
2013-06-05 16:57:00,76.8,52.6,29.13,East,94,5.0,10.0,43,0.00,,,0.05,WUHU216DAVISVP2,2013-06-05 20:57:00,
2013-06-05 16:58:00,76.9,53.3,29.13,East,99,10.0,10.0,44,0.00,,,0.05,WUHU216DAVISVP2,2013-06-05 20:58:00,
2013-06-05 16:59:00,76.8,51.9,29.13,ESE,118,8.0,10.0,42,0.00,,,0.05,WUHU216DAVISVP2,2013-06-05 20:59:00,
2013-06-05 17:02:00,76.6,52.4,29.13,NE,56,4.0,10.0,43,0.00,,,0.05,WUHU216DAVISVP2,2013-06-05 21:02:00,
2013-06-05 17:03:00,76.6,52.4,29.13,East,93,7.0,10.0,43,0.00,,,0.05,WUHU216DAVISVP2,2013-06-05 21:03:00,
2013-06-05 17:04:00,76.6,51.7,29.13,ENE,75,10.0,11.0,42,0.00,,,0.05,WUHU216DAVISVP2,2013-06-05 21:04:00,
2013-06-05 17:08:00,76.4,51.6,29.13,ESE,118,5.0,11.0,42,0.00,,,0.05,WUHU216DAVISVP2,2013-06-05 21:08:00,
2013-06-05 17:09:00,76.4,52.2,29.13,SE,129,6.0,11.0,43,0.00,,,0.05,WUHU216DAVISVP2,2013-06-05 21:09:00,
2013-06-05 17:13:00,76.1,52.6,29.12,ESE,102,2.0,11.0,44,0.00,,,0.05,WUHU216DAVISVP2,2013-06-05 21:13:00,
2013-06-05 17:14:00,76.1,51.9,29.12,ESE,114,3.0,11.0,43,0.00,,,0.05,WUHU216DAVISVP2,2013-06-05 21:14:00,
2013-06-05 17:15:00,76.1,52.6,29.12,ESE,122,2.0,11.0,44,0.00,,,0.05,WUHU216DAVISVP2,2013-06-05 21:15:00,
2013-06-05 17:18:00,76.1,52.6,29.12,ESE,102,3.0,11.0,44,0.00,,,0.05,WUHU216DAVISVP2,2013-06-05 21:18:00,
2013-06-05 17:19:00,76.1,52.6,29.12,NNE,33,6.0,11.0,44,0.00,,,0.05,WUHU216DAVISVP2,2013-06-05 21:19:00,
2013-06-05 17:20:00,76.2,52.7,29.12,ENE,66,7.0,11.0,44,0.00,,,0.05,WUHU216DAVISVP2,2013-06-05 21:20:00,
2013-06-05 17:23:00,76.6,52.4,29.11,ESE,106,6.0,10.0,43,0.00,,,0.05,WUHU216DAVISVP2,2013-06-05 21:23:00,
2013-06-05 17:24:00,76.7,52.5,29.11,East,91,6.0,11.0,43,0.00,,,0.05,WUHU216DAVISVP2,2013-06-05 21:24:00,
2013-06-05 17:25:00,76.8,52.6,29.11,East,81,4.0,11.0,43,0.00,,,0.05,WUHU216DAVISVP2,2013-06-05 21:25:00,
2013-06-05 17:28:00,76.8,53.2,29.11,East,92,5.0,13.0,44,0.00,,,0.05,WUHU216DAVISVP2,2013-06-05 21:28:00,
2013-06-05 17:30:00,76.9,53.3,29.11,East,80,6.0,13.0,44,0.00,,,0.05,WUHU216DAVISVP2,2013-06-05 21:30:00,
2013-06-05 17:33:00,77.1,52.2,29.11,ENE,68,6.0,13.0,42,0.00,,,0.05,WUHU216DAVISVP2,2013-06-05 21:33:00,
2013-06-05 17:34:00,77.1,52.2,29.11,East,100,7.0,13.0,42,0.00,,,0.05,WUHU216DAVISVP2,2013-06-05 21:34:00,
2013-06-05 17:35:00,77.1,52.2,29.11,East,95,5.0,13.0,42,0.00,,,0.05,WUHU216DAVISVP2,2013-06-05 21:35:00,
2013-06-05 17:38:00,77.1,52.2,29.10,ESE,116,6.0,13.0,42,0.00,,,0.05,WUHU216DAVISVP2,2013-06-05 21:38:00,
2013-06-05 17:39:00,77.1,52.8,29.10,East,101,8.0,13.0,43,0.00,,,0.05,WUHU216DAVISVP2,2013-06-05 21:39:00,
2013-06-05 17:40:00,77.0,52.1,29.10,East,91,4.0,13.0,42,0.00,,,0.05,WUHU216DAVISVP2,2013-06-05 21:40:00,
2013-06-05 17:41:00,76.9,52.7,29.10,ESE,115,6.0,13.0,43,0.00,,,0.05,WUHU216DAVISVP2,2013-06-05 21:41:00,
2013-06-05 17:43:00,76.9,52.0,29.10,East,81,4.0,13.0,42,0.00,,,0.05,WUHU216DAVISVP2,2013-06-05 21:43:00,
2013-06-05 17:44:00,76.9,52.0,29.10,ENE,68,4.0,12.0,42,0.00,,,0.05,WUHU216DAVISVP2,2013-06-05 21:44:00,
2013-06-05 17:45:00,76.9,52.7,29.10,ESE,104,8.0,11.0,43,0.00,,,0.05,WUHU216DAVISVP2,2013-06-05 21:45:00,
2013-06-05 17:46:00,77.0,52.8,29.11,ESE,117,2.0,11.0,43,0.00,,,0.05,WUHU216DAVISVP2,2013-06-05 21:46:00,
2013-06-05 17:47:00,77.0,53.4,29.11,ESE,120,4.0,11.0,44,0.00,,,0.05,WUHU216DAVISVP2,2013-06-05 21:47:00,
2013-06-05 17:49:00,77.2,52.9,29.11,ESE,102,2.0,10.0,43,0.00,,,0.05,WUHU216DAVISVP2,2013-06-05 21:49:00,
2013-06-05 17:50:00,77.3,53.0,29.11,East,97,6.0,10.0,43,0.00,,,0.05,WUHU216DAVISVP2,2013-06-05 21:50:00,
2013-06-05 17:51:00,77.3,52.4,29.10,ESE,120,7.0,10.0,42,0.00,,,0.05,WUHU216DAVISVP2,2013-06-05 21:51:00,
2013-06-05 17:52:00,77.3,52.4,29.11,ENE,73,4.0,10.0,42,0.00,,,0.05,WUHU216DAVISVP2,2013-06-05 21:52:00,
2013-06-05 17:54:00,77.2,51.6,29.11,East,95,7.0,10.0,41,0.00,,,0.05,WUHU216DAVISVP2,2013-06-05 21:54:00,
2013-06-05 17:55:00,77.1,51.5,29.11,East,100,5.0,10.0,41,0.00,,,0.05,WUHU216DAVISVP2,2013-06-05 21:55:00,
2013-06-05 17:56:00,77.1,52.2,29.10,East,90,4.0,10.0,42,0.00,,,0.05,WUHU216DAVISVP2,2013-06-05 21:56:00,
2013-06-05 17:57:00,77.1,52.2,29.11,East,88,0.0,9.0,42,0.00,,,0.05,WUHU216DAVISVP2,2013-06-05 21:57:00,
2013-06-05 17:59:00,77.3,53.0,29.10,East,86,1.0,9.0,43,0.00,,,0.05,WUHU216DAVISVP2,2013-06-05 21:59:00,
2013-06-05 18:00:00,77.5,52.5,29.10,East,86,0.0,9.0,42,0.00,,,0.05,WUHU216DAVISVP2,2013-06-05 22:00:00,
2013-06-05 18:01:00,77.5,52.5,29.10,East,86,0.0,9.0,42,0.00,,,0.05,WUHU216DAVISVP2,2013-06-05 22:01:00,
2013-06-05 18:02:00,77.6,52.0,29.10,ESE,106,8.0,9.0,41,0.00,,,0.05,WUHU216DAVISVP2,2013-06-05 22:02:00,
2013-06-05 18:04:00,77.4,52.5,29.10,ENE,60,7.0,10.0,42,0.00,,,0.05,WUHU216DAVISVP2,2013-06-05 22:04:00,
2013-06-05 18:05:00,77.4,52.5,29.10,ESE,114,6.0,10.0,42,0.00,,,0.05,WUHU216DAVISVP2,2013-06-05 22:05:00,
2013-06-05 18:06:00,77.3,52.4,29.10,ENE,73,6.0,10.0,42,0.00,,,0.05,WUHU216DAVISVP2,2013-06-05 22:06:00,
2013-06-05 18:08:00,77.1,52.2,29.10,ESE,114,6.0,10.0,42,0.00,,,0.05,WUHU216DAVISVP2,2013-06-05 22:08:00,
2013-06-05 18:10:00,77.0,52.1,29.10,ESE,115,7.0,10.0,42,0.00,,,0.05,WUHU216DAVISVP2,2013-06-05 22:10:00,
2013-06-05 18:11:00,76.9,52.0,29.10,East,82,4.0,10.0,42,0.00,,,0.05,WUHU216DAVISVP2,2013-06-05 22:11:00,
2013-06-05 18:13:00,76.8,52.6,29.10,SSE,162,6.0,10.0,43,0.00,,,0.05,WUHU216DAVISVP2,2013-06-05 22:13:00,
2013-06-05 18:15:00,76.7,52.5,29.10,ESE,113,4.0,10.0,43,0.00,,,0.05,WUHU216DAVISVP2,2013-06-05 22:15:00,
2013-06-05 18:16:00,76.7,51.8,29.10,ESE,112,2.0,10.0,42,0.00,,,0.05,WUHU216DAVISVP2,2013-06-05 22:16:00,
2013-06-05 18:17:00,76.7,51.8,29.10,ESE,103,6.0,10.0,42,0.00,,,0.05,WUHU216DAVISVP2,2013-06-05 22:17:00,
2013-06-05 18:18:00,76.6,52.4,29.10,East,84,5.0,10.0,43,0.00,,,0.05,WUHU216DAVISVP2,2013-06-05 22:18:00,
2013-06-05 18:20:00,76.6,51.7,29.10,NE,56,4.0,10.0,42,0.00,,,0.05,WUHU216DAVISVP2,2013-06-05 22:20:00,
2013-06-05 18:22:00,76.8,51.9,29.10,NE,56,2.0,10.0,42,0.00,,,0.05,WUHU216DAVISVP2,2013-06-05 22:22:00,
2013-06-05 18:24:00,77.0,52.1,29.10,East,100,6.0,9.0,42,0.00,,,0.05,WUHU216DAVISVP2,2013-06-05 22:24:00,
2013-06-05 18:25:00,77.1,52.8,29.10,East,95,8.0,9.0,43,0.00,,,0.05,WUHU216DAVISVP2,2013-06-05 22:25:00,
2013-06-05 18:27:00,77.1,52.2,29.09,ENE,68,4.0,9.0,42,0.00,,,0.05,WUHU216DAVISVP2,2013-06-05 22:27:00,
2013-06-05 18:29:00,77.1,52.2,29.10,ESE,114,6.0,9.0,42,0.00,,,0.05,WUHU216DAVISVP2,2013-06-05 22:29:00,
2013-06-05 18:30:00,77.1,52.2,29.10,ESE,102,1.0,8.0,42,0.00,,,0.05,WUHU216DAVISVP2,2013-06-05 22:30:00,
2013-06-05 18:32:00,77.1,52.9,29.10,ESE,118,7.0,8.0,43,0.00,,,0.05,WUHU216DAVISVP2,2013-06-05 22:32:00,
2013-06-05 18:34:00,77.1,52.2,29.09,ESE,104,6.0,8.0,42,0.00,,,0.05,WUHU216DAVISVP2,2013-06-05 22:34:00,
2013-06-05 18:35:00,77.1,52.8,29.09,ESE,118,7.0,8.0,43,0.00,,,0.05,WUHU216DAVISVP2,2013-06-05 22:35:00,
2013-06-05 18:36:00,77.0,52.8,29.09,ESE,112,5.0,8.0,43,0.00,,,0.05,WUHU216DAVISVP2,2013-06-05 22:36:00,
2013-06-05 18:37:00,77.0,52.8,29.09,SE,127,4.0,8.0,43,0.00,,,0.05,WUHU216DAVISVP2,2013-06-05 22:37:00,
2013-06-05 18:39:00,77.0,52.8,29.09,ENE,61,1.0,8.0,43,0.00,,,0.05,WUHU216DAVISVP2,2013-06-05 22:39:00,
2013-06-05 18:41:00,77.1,52.8,29.09,ESE,109,4.0,8.0,43,0.00,,,0.05,WUHU216DAVISVP2,2013-06-05 22:41:00,
2013-06-05 18:42:00,77.1,52.8,29.09,ENE,73,7.0,8.0,43,0.00,,,0.05,WUHU216DAVISVP2,2013-06-05 22:42:00,
2013-06-05 18:44:00,77.1,52.8,29.08,East,101,6.0,8.0,43,0.00,,,0.05,WUHU216DAVISVP2,2013-06-05 22:44:00,
2013-06-05 18:46:00,77.1,52.8,29.08,East,97,8.0,8.0,43,0.00,,,0.05,WUHU216DAVISVP2,2013-06-05 22:46:00,
2013-06-05 18:47:00,77.0,52.8,29.09,ESE,102,8.0,10.0,43,0.00,,,0.05,WUHU216DAVISVP2,2013-06-05 22:47:00,
2013-06-05 18:49:00,76.8,52.6,29.09,East,89,4.0,10.0,43,0.00,,,0.05,WUHU216DAVISVP2,2013-06-05 22:49:00,
2013-06-05 18:51:00,76.8,51.9,29.09,ENE,67,9.0,10.0,42,0.00,,,0.05,WUHU216DAVISVP2,2013-06-05 22:51:00,
2013-06-05 18:52:00,76.8,51.9,29.09,ESE,108,9.0,10.0,42,0.00,,,0.05,WUHU216DAVISVP2,2013-06-05 22:52:00,
2013-06-05 18:53:00,76.8,51.9,29.09,ENE,77,6.0,10.0,42,0.00,,,0.05,WUHU216DAVISVP2,2013-06-05 22:53:00,
2013-06-05 18:54:00,76.9,52.7,29.09,ESE,118,5.0,10.0,43,0.00,,,0.05,WUHU216DAVISVP2,2013-06-05 22:54:00,
2013-06-05 18:57:00,76.8,51.9,29.09,ESE,120,8.0,10.0,42,0.00,,,0.05,WUHU216DAVISVP2,2013-06-05 22:57:00,
2013-06-05 18:58:00,76.8,51.9,29.08,East,91,6.0,10.0,42,0.00,,,0.05,WUHU216DAVISVP2,2013-06-05 22:58:00,
2013-06-05 18:59:00,76.7,52.5,29.08,ESE,103,4.0,10.0,43,0.00,,,0.05,WUHU216DAVISVP2,2013-06-05 22:59:00,
2013-06-05 19:02:00,76.4,52.9,29.08,NE,50,6.0,10.0,44,0.00,,,0.05,WUHU216DAVISVP2,2013-06-05 23:02:00,
2013-06-05 19:03:00,76.4,53.5,29.08,East,85,9.0,11.0,45,0.00,,,0.05,WUHU216DAVISVP2,2013-06-05 23:03:00,
2013-06-05 19:05:00,76.5,54.2,29.08,NE,50,6.0,11.0,46,0.00,,,0.05,WUHU216DAVISVP2,2013-06-05 23:05:00,
2013-06-05 19:07:00,76.5,53.6,29.08,ENE,59,7.0,13.0,45,0.00,,,0.05,WUHU216DAVISVP2,2013-06-05 23:07:00,
2013-06-05 19:08:00,76.5,54.2,29.08,ENE,57,11.0,13.0,46,0.00,,,0.05,WUHU216DAVISVP2,2013-06-05 23:08:00,
2013-06-05 19:10:00,76.4,54.1,29.08,ENE,61,5.0,13.0,46,0.00,,,0.05,WUHU216DAVISVP2,2013-06-05 23:10:00,
2013-06-05 19:12:00,76.5,54.2,29.09,East,98,6.0,13.0,46,0.00,,,0.05,WUHU216DAVISVP2,2013-06-05 23:12:00,
2013-06-05 19:13:00,76.5,54.2,29.09,East,82,4.0,13.0,46,0.00,,,0.05,WUHU216DAVISVP2,2013-06-05 23:13:00,
2013-06-05 19:14:00,76.4,54.1,29.09,ENE,72,5.0,13.0,46,0.00,,,0.05,WUHU216DAVISVP2,2013-06-05 23:14:00,
2013-06-05 19:15:00,76.4,54.1,29.09,ENE,75,6.0,13.0,46,0.00,,,0.05,WUHU216DAVISVP2,2013-06-05 23:15:00,
2013-06-05 19:17:00,76.2,53.9,29.09,East,81,5.0,13.0,46,0.00,,,0.05,WUHU216DAVISVP2,2013-06-05 23:17:00,
2013-06-05 19:18:00,76.2,54.5,29.09,East,91,6.0,13.0,47,0.00,,,0.05,WUHU216DAVISVP2,2013-06-05 23:18:00,
2013-06-05 19:19:00,76.0,53.7,29.09,ENE,74,6.0,13.0,46,0.00,,,0.05,WUHU216DAVISVP2,2013-06-05 23:19:00,
2013-06-05 19:20:00,76.0,53.7,29.09,ENE,58,6.0,13.0,46,0.00,,,0.05,WUHU216DAVISVP2,2013-06-05 23:20:00,
2013-06-05 19:22:00,76.0,53.7,29.08,East,82,4.0,13.0,46,0.00,,,0.05,WUHU216DAVISVP2,2013-06-05 23:22:00,
2013-06-05 19:23:00,75.9,54.3,29.08,ESE,103,10.0,13.0,47,0.00,,,0.05,WUHU216DAVISVP2,2013-06-05 23:23:00,
2013-06-05 19:24:00,75.9,53.6,29.08,ENE,70,6.0,13.0,46,0.00,,,0.05,WUHU216DAVISVP2,2013-06-05 23:24:00,
2013-06-05 19:25:00,75.8,53.6,29.08,East,87,7.0,12.0,46,0.00,,,0.05,WUHU216DAVISVP2,2013-06-05 23:25:00,
2013-06-05 19:27:00,75.8,54.2,29.08,ESE,106,8.0,12.0,47,0.00,,,0.05,WUHU216DAVISVP2,2013-06-05 23:27:00,
2013-06-05 19:29:00,75.7,54.1,29.08,ENE,70,4.0,12.0,47,0.00,,,0.05,WUHU216DAVISVP2,2013-06-05 23:29:00,
2013-06-05 19:30:00,75.7,54.1,29.08,ENE,58,5.0,12.0,47,0.00,,,0.05,WUHU216DAVISVP2,2013-06-05 23:30:00,
2013-06-05 19:32:00,75.8,54.8,29.08,NE,54,6.0,12.0,48,0.00,,,0.05,WUHU216DAVISVP2,2013-06-05 23:32:00,
2013-06-05 19:34:00,75.8,54.2,29.08,East,93,5.0,12.0,47,0.00,,,0.05,WUHU216DAVISVP2,2013-06-05 23:34:00,
2013-06-05 19:35:00,75.8,54.2,29.08,ENE,58,5.0,12.0,47,0.00,,,0.05,WUHU216DAVISVP2,2013-06-05 23:35:00,
2013-06-05 19:37:00,75.9,54.3,29.08,NE,52,5.0,12.0,47,0.00,,,0.05,WUHU216DAVISVP2,2013-06-05 23:37:00,
2013-06-05 19:38:00,76.0,54.3,29.08,ENE,67,6.0,12.0,47,0.00,,,0.05,WUHU216DAVISVP2,2013-06-05 23:38:00,
2013-06-05 19:39:00,76.0,54.3,29.08,East,89,8.0,12.0,47,0.00,,,0.05,WUHU216DAVISVP2,2013-06-05 23:39:00,
2013-06-05 19:40:00,76.0,53.7,29.08,ENE,58,11.0,14.0,46,0.00,,,0.05,WUHU216DAVISVP2,2013-06-05 23:40:00,
2013-06-05 19:42:00,75.8,53.6,29.08,East,86,5.0,14.0,46,0.00,,,0.05,WUHU216DAVISVP2,2013-06-05 23:42:00,
2013-06-05 19:43:00,75.8,53.6,29.08,ENE,63,8.0,14.0,46,0.00,,,0.05,WUHU216DAVISVP2,2013-06-05 23:43:00,
2013-06-05 19:44:00,75.8,54.2,29.08,ENE,75,9.0,14.0,47,0.00,,,0.05,WUHU216DAVISVP2,2013-06-05 23:44:00,
2013-06-05 19:45:00,75.7,54.1,29.08,ENE,72,5.0,14.0,47,0.00,,,0.05,WUHU216DAVISVP2,2013-06-05 23:45:00,
2013-06-05 19:47:00,75.7,54.1,29.08,ENE,67,8.0,14.0,47,0.00,,,0.05,WUHU216DAVISVP2,2013-06-05 23:47:00,
2013-06-05 19:48:00,75.6,54.0,29.08,ENE,67,9.0,14.0,47,0.00,,,0.05,WUHU216DAVISVP2,2013-06-05 23:48:00,
2013-06-05 19:49:00,75.5,53.3,29.08,East,79,7.0,14.0,46,0.00,,,0.05,WUHU216DAVISVP2,2013-06-05 23:49:00,
2013-06-05 19:50:00,75.4,53.8,29.08,ENE,70,8.0,14.0,47,0.00,,,0.05,WUHU216DAVISVP2,2013-06-05 23:50:00,
2013-06-05 19:52:00,75.4,53.8,29.08,ENE,62,6.0,14.0,47,0.00,,,0.05,WUHU216DAVISVP2,2013-06-05 23:52:00,
2013-06-05 19:53:00,75.3,53.7,29.09,ENE,61,7.0,14.0,47,0.00,,,0.05,WUHU216DAVISVP2,2013-06-05 23:53:00,
2013-06-05 19:54:00,75.2,53.6,29.08,ENE,75,5.0,14.0,47,0.00,,,0.05,WUHU216DAVISVP2,2013-06-05 23:54:00,
2013-06-05 19:55:00,75.1,53.5,29.08,ENE,75,1.0,14.0,47,0.00,,,0.05,WUHU216DAVISVP2,2013-06-05 23:55:00,
2013-06-05 19:57:00,75.0,53.4,29.09,ENE,69,7.0,14.0,47,0.00,,,0.05,WUHU216DAVISVP2,2013-06-05 23:57:00,
2013-06-05 19:58:00,74.9,53.3,29.08,ENE,60,2.0,11.0,47,0.00,,,0.05,WUHU216DAVISVP2,2013-06-05 23:58:00,
2013-06-05 19:59:00,74.9,53.9,29.08,ENE,70,6.0,11.0,48,0.00,,,0.05,WUHU216DAVISVP2,2013-06-05 23:59:00,
2013-06-05 20:00:00,74.8,53.2,29.08,ENE,66,8.0,11.0,47,0.00,,,0.05,WUHU216DAVISVP2,2013-06-06 00:00:00,
2013-06-05 20:02:00,74.8,53.8,29.08,NE,45,5.0,11.0,48,0.00,,,0.05,WUHU216DAVISVP2,2013-06-06 00:02:00,
2013-06-05 20:03:00,74.8,53.8,29.08,East,82,5.0,11.0,48,0.00,,,0.05,WUHU216DAVISVP2,2013-06-06 00:03:00,
2013-06-05 20:04:00,74.7,53.8,29.08,ENE,67,6.0,11.0,48,0.00,,,0.05,WUHU216DAVISVP2,2013-06-06 00:04:00,
2013-06-05 20:05:00,74.7,53.8,29.08,NE,52,7.0,11.0,48,0.00,,,0.05,WUHU216DAVISVP2,2013-06-06 00:05:00,
2013-06-05 20:07:00,74.7,53.8,29.08,NE,56,5.0,11.0,48,0.00,,,0.05,WUHU216DAVISVP2,2013-06-06 00:07:00,
2013-06-05 20:08:00,74.6,53.7,29.08,East,79,4.0,11.0,48,0.00,,,0.05,WUHU216DAVISVP2,2013-06-06 00:08:00,
2013-06-05 20:09:00,74.5,54.1,29.08,East,93,6.0,11.0,49,0.00,,,0.05,WUHU216DAVISVP2,2013-06-06 00:09:00,
2013-06-05 20:10:00,74.5,54.1,29.08,East,95,5.0,11.0,49,0.00,,,0.05,WUHU216DAVISVP2,2013-06-06 00:10:00,
2013-06-05 20:12:00,74.4,53.5,29.08,ENE,77,8.0,11.0,48,0.00,,,0.05,WUHU216DAVISVP2,2013-06-06 00:12:00,
2013-06-05 20:13:00,74.3,53.4,29.09,East,88,7.0,11.0,48,0.00,,,0.05,WUHU216DAVISVP2,2013-06-06 00:13:00,
2013-06-05 20:14:00,74.3,53.4,29.09,ESE,102,7.0,13.0,48,0.00,,,0.05,WUHU216DAVISVP2,2013-06-06 00:14:00,
2013-06-05 20:15:00,74.3,53.4,29.09,East,100,9.0,13.0,48,0.00,,,0.05,WUHU216DAVISVP2,2013-06-06 00:15:00,
2013-06-05 20:17:00,74.1,53.8,29.09,East,95,7.0,13.0,49,0.00,,,0.05,WUHU216DAVISVP2,2013-06-06 00:17:00,
2013-06-05 20:19:00,74.1,53.8,29.08,ENE,74,5.0,13.0,49,0.00,,,0.05,WUHU216DAVISVP2,2013-06-06 00:19:00,
2013-06-05 20:20:00,74.1,53.8,29.08,ENE,72,8.0,13.0,49,0.00,,,0.05,WUHU216DAVISVP2,2013-06-06 00:20:00,
2013-06-05 20:22:00,74.0,53.7,29.08,ENE,77,5.0,13.0,49,0.00,,,0.05,WUHU216DAVISVP2,2013-06-06 00:22:00,
2013-06-05 20:24:00,73.9,53.6,29.08,ENE,62,7.0,13.0,49,0.00,,,0.05,WUHU216DAVISVP2,2013-06-06 00:24:00,
2013-06-05 20:25:00,73.9,53.6,29.08,East,83,5.0,13.0,49,0.00,,,0.05,WUHU216DAVISVP2,2013-06-06 00:25:00,
2013-06-05 20:27:00,73.7,54.0,29.08,ESE,103,11.0,13.0,50,0.00,,,0.05,WUHU216DAVISVP2,2013-06-06 00:27:00,
2013-06-05 20:29:00,73.6,53.9,29.08,East,80,3.0,13.0,50,0.00,,,0.05,WUHU216DAVISVP2,2013-06-06 00:29:00,
2013-06-05 20:30:00,73.6,53.9,29.08,NE,56,6.0,13.0,50,0.00,,,0.05,WUHU216DAVISVP2,2013-06-06 00:30:00,
2013-06-05 20:32:00,73.4,53.7,29.08,ENE,67,7.0,13.0,50,0.00,,,0.05,WUHU216DAVISVP2,2013-06-06 00:32:00,
2013-06-05 20:33:00,73.4,53.7,29.08,ENE,62,6.0,12.0,50,0.00,,,0.05,WUHU216DAVISVP2,2013-06-06 00:33:00,
2013-06-05 20:34:00,73.3,54.2,29.08,NE,56,8.0,11.0,51,0.00,,,0.05,WUHU216DAVISVP2,2013-06-06 00:34:00,
2013-06-05 20:35:00,73.3,54.2,29.08,ENE,77,6.0,11.0,51,0.00,,,0.05,WUHU216DAVISVP2,2013-06-06 00:35:00,
2013-06-05 20:37:00,73.1,54.0,29.08,NE,50,5.0,11.0,51,0.00,,,0.05,WUHU216DAVISVP2,2013-06-06 00:37:00,
2013-06-05 20:38:00,73.1,54.0,29.08,ENE,77,9.0,11.0,51,0.00,,,0.05,WUHU216DAVISVP2,2013-06-06 00:38:00,
2013-06-05 20:39:00,73.0,53.9,29.08,NE,55,8.0,12.0,51,0.00,,,0.05,WUHU216DAVISVP2,2013-06-06 00:39:00,
2013-06-05 20:40:00,73.0,53.9,29.08,ENE,72,4.0,12.0,51,0.00,,,0.05,WUHU216DAVISVP2,2013-06-06 00:40:00,
2013-06-05 20:41:00,73.0,53.9,29.08,ENE,72,7.0,12.0,51,0.00,,,0.05,WUHU216DAVISVP2,2013-06-06 00:41:00,
2013-06-05 20:42:00,72.9,53.8,29.08,ENE,65,5.0,12.0,51,0.00,,,0.05,WUHU216DAVISVP2,2013-06-06 00:42:00,
2013-06-05 20:43:00,72.8,53.7,29.08,East,83,6.0,12.0,51,0.00,,,0.05,WUHU216DAVISVP2,2013-06-06 00:43:00,
2013-06-05 20:44:00,72.7,53.6,29.08,ENE,68,8.0,12.0,51,0.00,,,0.05,WUHU216DAVISVP2,2013-06-06 00:44:00,
2013-06-05 20:46:00,72.6,53.5,29.08,East,79,5.0,12.0,51,0.00,,,0.05,WUHU216DAVISVP2,2013-06-06 00:46:00,
2013-06-05 20:48:00,72.6,54.1,29.08,East,79,8.0,12.0,52,0.00,,,0.05,WUHU216DAVISVP2,2013-06-06 00:48:00,
2013-06-05 20:49:00,72.5,54.0,29.08,ENE,78,5.0,12.0,52,0.00,,,0.05,WUHU216DAVISVP2,2013-06-06 00:49:00,
2013-06-05 20:51:00,72.4,53.9,29.08,ENE,73,6.0,12.0,52,0.00,,,0.05,WUHU216DAVISVP2,2013-06-06 00:51:00,
2013-06-05 20:53:00,72.3,53.8,29.08,East,82,4.0,12.0,52,0.00,,,0.05,WUHU216DAVISVP2,2013-06-06 00:53:00,
2013-06-05 20:54:00,72.2,54.2,29.08,ENE,73,6.0,12.0,53,0.00,,,0.05,WUHU216DAVISVP2,2013-06-06 00:54:00,
2013-06-05 20:56:00,72.1,54.1,29.08,ENE,72,2.0,12.0,53,0.00,,,0.05,WUHU216DAVISVP2,2013-06-06 00:56:00,
2013-06-05 20:57:00,72.1,54.1,29.08,ENE,61,5.0,12.0,53,0.00,,,0.05,WUHU216DAVISVP2,2013-06-06 00:57:00,
2013-06-05 20:58:00,72.0,54.0,29.08,ENE,73,5.0,12.0,53,0.00,,,0.05,WUHU216DAVISVP2,2013-06-06 00:58:00,
2013-06-05 20:59:00,71.9,54.0,29.08,ENE,73,5.0,10.0,53,0.00,,,0.05,WUHU216DAVISVP2,2013-06-06 00:59:00,
2013-06-05 21:01:00,71.8,54.4,29.08,East,91,5.0,10.0,54,0.00,,,0.05,WUHU216DAVISVP2,2013-06-06 01:01:00,
2013-06-05 21:02:00,71.8,53.9,29.08,East,79,4.0,10.0,53,0.00,,,0.05,WUHU216DAVISVP2,2013-06-06 01:02:00,
2013-06-05 21:03:00,71.7,53.8,29.08,ENE,71,6.0,10.0,53,0.00,,,0.05,WUHU216DAVISVP2,2013-06-06 01:03:00,
2013-06-05 21:05:00,71.7,53.8,29.08,East,79,5.0,10.0,53,0.00,,,0.05,WUHU216DAVISVP2,2013-06-06 01:05:00,
2013-06-05 21:06:00,71.6,53.7,29.08,East,100,6.0,10.0,53,0.00,,,0.05,WUHU216DAVISVP2,2013-06-06 01:06:00,
2013-06-05 21:07:00,71.5,54.1,29.08,East,84,6.0,10.0,54,0.00,,,0.05,WUHU216DAVISVP2,2013-06-06 01:07:00,
2013-06-05 21:08:00,71.5,54.1,29.08,ENE,77,7.0,10.0,54,0.00,,,0.05,WUHU216DAVISVP2,2013-06-06 01:08:00,
2013-06-05 21:10:00,71.5,54.1,29.08,ENE,73,6.0,10.0,54,0.00,,,0.05,WUHU216DAVISVP2,2013-06-06 01:10:00,
2013-06-05 21:11:00,71.4,54.0,29.08,ENE,78,8.0,10.0,54,0.00,,,0.05,WUHU216DAVISVP2,2013-06-06 01:11:00,
2013-06-05 21:12:00,71.3,53.9,29.08,East,100,6.0,10.0,54,0.00,,,0.05,WUHU216DAVISVP2,2013-06-06 01:12:00,
2013-06-05 21:13:00,71.2,53.8,29.08,ENE,63,6.0,10.0,54,0.00,,,0.05,WUHU216DAVISVP2,2013-06-06 01:13:00,
2013-06-05 21:14:00,71.2,53.8,29.08,ENE,73,9.0,10.0,54,0.00,,,0.05,WUHU216DAVISVP2,2013-06-06 01:14:00,
2013-06-05 21:15:00,71.2,53.8,29.08,East,87,6.0,10.0,54,0.00,,,0.05,WUHU216DAVISVP2,2013-06-06 01:15:00,
2013-06-05 21:17:00,71.1,53.7,29.08,ENE,64,4.0,10.0,54,0.00,,,0.05,WUHU216DAVISVP2,2013-06-06 01:17:00,
2013-06-05 21:19:00,71.0,54.2,29.08,ENE,75,4.0,10.0,55,0.00,,,0.05,WUHU216DAVISVP2,2013-06-06 01:19:00,
2013-06-05 21:20:00,71.0,54.2,29.08,ESE,102,8.0,13.0,55,0.00,,,0.05,WUHU216DAVISVP2,2013-06-06 01:20:00,
2013-06-05 21:22:00,70.9,54.1,29.08,East,84,3.0,13.0,55,0.00,,,0.05,WUHU216DAVISVP2,2013-06-06 01:22:00,
2013-06-05 21:24:00,70.8,54.0,29.08,East,91,7.0,13.0,55,0.00,,,0.05,WUHU216DAVISVP2,2013-06-06 01:24:00,
2013-06-05 21:26:00,70.7,53.9,29.08,ENE,65,4.0,13.0,55,0.00,,,0.05,WUHU216DAVISVP2,2013-06-06 01:26:00,
2013-06-05 21:27:00,70.7,53.9,29.08,NNE,27,8.0,13.0,55,0.00,,,0.05,WUHU216DAVISVP2,2013-06-06 01:27:00,
2013-06-05 21:28:00,70.6,53.8,29.08,ENE,68,7.0,13.0,55,0.00,,,0.05,WUHU216DAVISVP2,2013-06-06 01:28:00,
2013-06-05 21:29:00,70.6,53.8,29.08,ENE,62,8.0,13.0,55,0.00,,,0.05,WUHU216DAVISVP2,2013-06-06 01:29:00,
2013-06-05 21:31:00,70.5,54.2,29.08,ENE,70,8.0,13.0,56,0.00,,,0.05,WUHU216DAVISVP2,2013-06-06 01:31:00,
2013-06-05 21:32:00,70.5,54.2,29.08,ENE,73,8.0,13.0,56,0.00,,,0.05,WUHU216DAVISVP2,2013-06-06 01:32:00,
2013-06-05 21:33:00,70.4,54.1,29.08,ENE,73,6.0,13.0,56,0.00,,,0.05,WUHU216DAVISVP2,2013-06-06 01:33:00,
2013-06-05 21:34:00,70.4,54.1,29.08,ENE,68,6.0,13.0,56,0.00,,,0.05,WUHU216DAVISVP2,2013-06-06 01:34:00,
2013-06-05 21:36:00,70.4,54.1,29.08,East,83,6.0,13.0,56,0.00,,,0.05,WUHU216DAVISVP2,2013-06-06 01:36:00,
2013-06-05 21:37:00,70.3,54.0,29.08,East,81,6.0,13.0,56,0.00,,,0.05,WUHU216DAVISVP2,2013-06-06 01:37:00,
2013-06-05 21:38:00,70.3,54.0,29.08,East,90,8.0,12.0,56,0.00,,,0.05,WUHU216DAVISVP2,2013-06-06 01:38:00,
2013-06-05 21:39:00,70.2,53.9,29.08,East,95,6.0,12.0,56,0.00,,,0.05,WUHU216DAVISVP2,2013-06-06 01:39:00,
2013-06-05 21:40:00,70.2,53.9,29.08,ENE,70,4.0,12.0,56,0.00,,,0.05,WUHU216DAVISVP2,2013-06-06 01:40:00,
2013-06-05 21:41:00,70.2,54.4,29.08,East,97,7.0,12.0,57,0.00,,,0.05,WUHU216DAVISVP2,2013-06-06 01:41:00,
2013-06-05 21:43:00,70.1,54.3,29.08,ESE,106,6.0,12.0,57,0.00,,,0.05,WUHU216DAVISVP2,2013-06-06 01:43:00,
2013-06-05 21:45:00,70.0,54.2,29.08,East,99,8.0,12.0,57,0.00,,,0.05,WUHU216DAVISVP2,2013-06-06 01:45:00,
2013-06-05 21:46:00,69.9,54.1,29.08,ESE,114,5.0,12.0,57,0.00,,,0.05,WUHU216DAVISVP2,2013-06-06 01:46:00,
2013-06-05 21:48:00,69.9,54.1,29.09,ENE,75,6.0,12.0,57,0.00,,,0.05,WUHU216DAVISVP2,2013-06-06 01:48:00,
2013-06-05 21:49:00,69.9,54.1,29.09,ENE,75,7.0,12.0,57,0.00,,,0.05,WUHU216DAVISVP2,2013-06-06 01:49:00,
2013-06-05 21:50:00,69.8,54.0,29.09,ESE,102,8.0,12.0,57,0.00,,,0.05,WUHU216DAVISVP2,2013-06-06 01:50:00,
2013-06-05 21:52:00,69.7,53.9,29.09,East,91,6.0,12.0,57,0.00,,,0.05,WUHU216DAVISVP2,2013-06-06 01:52:00,
2013-06-05 21:53:00,69.7,53.9,29.09,ENE,78,8.0,12.0,57,0.00,,,0.05,WUHU216DAVISVP2,2013-06-06 01:53:00,
2013-06-05 21:54:00,69.6,53.8,29.09,East,84,6.0,12.0,57,0.00,,,0.05,WUHU216DAVISVP2,2013-06-06 01:54:00,
2013-06-05 21:55:00,69.6,53.8,29.09,East,91,8.0,12.0,57,0.00,,,0.05,WUHU216DAVISVP2,2013-06-06 01:55:00,
2013-06-05 21:56:00,69.5,53.7,29.09,East,97,6.0,12.0,57,0.00,,,0.05,WUHU216DAVISVP2,2013-06-06 01:56:00,
2013-06-05 21:57:00,69.5,53.7,29.09,East,97,8.0,10.0,57,0.00,,,0.05,WUHU216DAVISVP2,2013-06-06 01:57:00,
2013-06-05 21:58:00,69.4,53.7,29.09,ESE,104,6.0,10.0,57,0.00,,,0.05,WUHU216DAVISVP2,2013-06-06 01:58:00,
2013-06-05 21:59:00,69.3,53.6,29.09,East,91,5.0,10.0,57,0.00,,,0.05,WUHU216DAVISVP2,2013-06-06 01:59:00,
2013-06-05 22:00:00,69.3,53.6,29.09,East,92,6.0,10.0,57,0.00,,,0.05,WUHU216DAVISVP2,2013-06-06 02:00:00,
2013-06-05 22:01:00,69.3,53.6,29.09,East,97,6.0,10.0,57,0.00,,,0.05,WUHU216DAVISVP2,2013-06-06 02:01:00,
2013-06-05 22:03:00,69.2,54.0,29.09,ESE,110,5.0,10.0,58,0.00,,,0.05,WUHU216DAVISVP2,2013-06-06 02:03:00,
2013-06-05 22:04:00,69.2,54.0,29.09,ENE,70,6.0,10.0,58,0.00,,,0.05,WUHU216DAVISVP2,2013-06-06 02:04:00,
2013-06-05 22:05:00,69.1,53.9,29.09,ESE,108,6.0,10.0,58,0.00,,,0.05,WUHU216DAVISVP2,2013-06-06 02:05:00,
2013-06-05 22:06:00,69.1,53.9,29.09,East,98,6.0,10.0,58,0.00,,,0.05,WUHU216DAVISVP2,2013-06-06 02:06:00,
2013-06-05 22:08:00,69.0,53.8,29.09,East,92,5.0,10.0,58,0.00,,,0.05,WUHU216DAVISVP2,2013-06-06 02:08:00,
2013-06-05 22:09:00,68.9,53.7,29.09,East,81,4.0,10.0,58,0.00,,,0.05,WUHU216DAVISVP2,2013-06-06 02:09:00,
2013-06-05 22:10:00,68.9,54.1,29.10,ESE,112,8.0,10.0,59,0.00,,,0.05,WUHU216DAVISVP2,2013-06-06 02:10:00,
2013-06-05 22:12:00,68.8,53.6,29.10,East,99,8.0,10.0,58,0.00,,,0.05,WUHU216DAVISVP2,2013-06-06 02:12:00,
2013-06-05 22:13:00,68.7,54.0,29.10,East,92,6.0,10.0,59,0.00,,,0.05,WUHU216DAVISVP2,2013-06-06 02:13:00,
2013-06-05 22:14:00,68.6,53.9,29.10,East,97,4.0,10.0,59,0.00,,,0.05,WUHU216DAVISVP2,2013-06-06 02:14:00,
2013-06-05 22:15:00,68.6,53.9,29.09,ESE,105,5.0,10.0,59,0.00,,,0.05,WUHU216DAVISVP2,2013-06-06 02:15:00,
2013-06-05 22:16:00,68.6,53.9,29.09,ESE,104,6.0,9.0,59,0.00,,,0.05,WUHU216DAVISVP2,2013-06-06 02:16:00,
2013-06-05 22:17:00,68.5,53.8,29.09,East,89,6.0,9.0,59,0.00,,,0.05,WUHU216DAVISVP2,2013-06-06 02:17:00,
2013-06-05 22:18:00,68.4,53.7,29.09,East,95,4.0,9.0,59,0.00,,,0.05,WUHU216DAVISVP2,2013-06-06 02:18:00,
2013-06-05 22:19:00,68.3,53.6,29.09,ESE,109,5.0,9.0,59,0.00,,,0.05,WUHU216DAVISVP2,2013-06-06 02:19:00,
2013-06-05 22:20:00,68.3,53.6,29.09,East,97,5.0,9.0,59,0.00,,,0.05,WUHU216DAVISVP2,2013-06-06 02:20:00,
2013-06-05 22:21:00,68.2,53.5,29.09,ESE,102,5.0,9.0,59,0.00,,,0.05,WUHU216DAVISVP2,2013-06-06 02:21:00,
2013-06-05 22:22:00,68.1,53.9,29.09,ESE,107,5.0,9.0,60,0.00,,,0.05,WUHU216DAVISVP2,2013-06-06 02:22:00,
2013-06-05 22:24:00,68.0,53.8,29.09,East,98,4.0,9.0,60,0.00,,,0.05,WUHU216DAVISVP2,2013-06-06 02:24:00,
2013-06-05 22:25:00,67.9,53.7,29.09,East,87,6.0,9.0,60,0.00,,,0.05,WUHU216DAVISVP2,2013-06-06 02:25:00,
2013-06-05 22:26:00,67.9,53.7,29.09,East,100,6.0,9.0,60,0.00,,,0.05,WUHU216DAVISVP2,2013-06-06 02:26:00,
2013-06-05 22:27:00,67.8,53.6,29.09,East,93,6.0,9.0,60,0.00,,,0.05,WUHU216DAVISVP2,2013-06-06 02:27:00,
2013-06-05 22:29:00,67.6,53.4,29.09,East,93,5.0,9.0,60,0.00,,,0.05,WUHU216DAVISVP2,2013-06-06 02:29:00,
2013-06-05 22:30:00,67.6,53.4,29.09,ESE,112,6.0,9.0,60,0.00,,,0.05,WUHU216DAVISVP2,2013-06-06 02:30:00,
2013-06-05 22:31:00,67.5,53.7,29.09,ESE,106,6.0,8.0,61,0.00,,,0.05,WUHU216DAVISVP2,2013-06-06 02:31:00,
2013-06-05 22:32:00,67.5,53.7,29.09,East,91,6.0,8.0,61,0.00,,,0.05,WUHU216DAVISVP2,2013-06-06 02:32:00,
2013-06-05 22:34:00,67.4,53.7,29.09,ESE,114,5.0,8.0,61,0.00,,,0.05,WUHU216DAVISVP2,2013-06-06 02:34:00,
2013-06-05 22:35:00,67.3,53.6,29.09,East,89,7.0,8.0,61,0.00,,,0.05,WUHU216DAVISVP2,2013-06-06 02:35:00,
2013-06-05 22:36:00,67.3,53.6,29.09,ESE,117,8.0,9.0,61,0.00,,,0.05,WUHU216DAVISVP2,2013-06-06 02:36:00,
2013-06-05 22:38:00,67.2,53.0,29.09,ESE,106,5.0,10.0,60,0.00,,,0.05,WUHU216DAVISVP2,2013-06-06 02:38:00,
2013-06-05 22:39:00,67.2,53.0,29.09,East,89,7.0,12.0,60,0.00,,,0.05,WUHU216DAVISVP2,2013-06-06 02:39:00,
2013-06-05 22:40:00,67.2,52.5,29.09,ESE,104,6.0,12.0,59,0.00,,,0.05,WUHU216DAVISVP2,2013-06-06 02:40:00,
2013-06-05 22:42:00,67.2,52.5,29.09,ESE,120,6.0,12.0,59,0.00,,,0.05,WUHU216DAVISVP2,2013-06-06 02:42:00,
2013-06-05 22:43:00,67.2,52.5,29.09,East,90,6.0,12.0,59,0.00,,,0.05,WUHU216DAVISVP2,2013-06-06 02:43:00,
2013-06-05 22:44:00,67.2,52.5,29.09,ESE,112,5.0,12.0,59,0.00,,,0.05,WUHU216DAVISVP2,2013-06-06 02:44:00,
2013-06-05 22:45:00,67.2,52.5,29.10,ESE,118,10.0,12.0,59,0.00,,,0.05,WUHU216DAVISVP2,2013-06-06 02:45:00,
2013-06-05 22:47:00,67.1,52.0,29.10,ESE,116,7.0,12.0,58,0.00,,,0.05,WUHU216DAVISVP2,2013-06-06 02:47:00,
2013-06-05 22:48:00,67.1,52.0,29.10,ENE,75,6.0,12.0,58,0.00,,,0.05,WUHU216DAVISVP2,2013-06-06 02:48:00,
2013-06-05 22:49:00,67.1,52.0,29.10,East,100,8.0,13.0,58,0.00,,,0.05,WUHU216DAVISVP2,2013-06-06 02:49:00,
2013-06-05 22:50:00,67.1,51.5,29.10,ESE,105,7.0,13.0,57,0.00,,,0.05,WUHU216DAVISVP2,2013-06-06 02:50:00,
2013-06-05 22:52:00,67.0,51.4,29.10,SE,130,6.0,13.0,57,0.00,,,0.05,WUHU216DAVISVP2,2013-06-06 02:52:00,
2013-06-05 22:53:00,67.0,51.4,29.09,East,99,8.0,13.0,57,0.00,,,0.05,WUHU216DAVISVP2,2013-06-06 02:53:00,
2013-06-05 22:54:00,66.9,51.3,29.09,ESE,119,8.0,13.0,57,0.00,,,0.05,WUHU216DAVISVP2,2013-06-06 02:54:00,
2013-06-05 22:55:00,66.9,51.3,29.09,ESE,116,6.0,13.0,57,0.00,,,0.05,WUHU216DAVISVP2,2013-06-06 02:55:00,
2013-06-05 22:57:00,66.8,51.2,29.09,ESE,112,12.0,13.0,57,0.00,,,0.05,WUHU216DAVISVP2,2013-06-06 02:57:00,
2013-06-05 22:58:00,66.8,51.2,29.09,ESE,119,8.0,13.0,57,0.00,,,0.05,WUHU216DAVISVP2,2013-06-06 02:58:00,
2013-06-05 23:00:00,66.7,51.1,29.09,ESE,122,9.0,13.0,57,0.00,,,0.05,WUHU216DAVISVP2,2013-06-06 03:00:00,
2013-06-05 23:01:00,66.7,51.1,29.09,ESE,116,9.0,13.0,57,0.00,,,0.05,WUHU216DAVISVP2,2013-06-06 03:01:00,
2013-06-05 23:03:00,66.6,51.0,29.10,ESE,108,5.0,13.0,57,0.00,,,0.05,WUHU216DAVISVP2,2013-06-06 03:03:00,
2013-06-05 23:05:00,66.5,50.9,29.10,East,99,6.0,13.0,57,0.00,,,0.05,WUHU216DAVISVP2,2013-06-06 03:05:00,
2013-06-05 23:06:00,66.5,50.9,29.10,ESE,116,8.0,13.0,57,0.00,,,0.05,WUHU216DAVISVP2,2013-06-06 03:06:00,
2013-06-05 23:08:00,66.4,51.3,29.10,ESE,113,7.0,12.0,58,0.00,,,0.05,WUHU216DAVISVP2,2013-06-06 03:08:00,
2013-06-05 23:10:00,66.3,51.2,29.10,ESE,108,4.0,12.0,58,0.00,,,0.05,WUHU216DAVISVP2,2013-06-06 03:10:00,
2013-06-05 23:12:00,66.2,51.1,29.10,ESE,103,6.0,12.0,58,0.00,,,0.05,WUHU216DAVISVP2,2013-06-06 03:12:00,
2013-06-05 23:13:00,66.2,51.1,29.10,ESE,111,6.0,12.0,58,0.00,,,0.05,WUHU216DAVISVP2,2013-06-06 03:13:00,
2013-06-05 23:14:00,66.1,51.0,29.10,ESE,103,7.0,12.0,58,0.00,,,0.05,WUHU216DAVISVP2,2013-06-06 03:14:00,
2013-06-05 23:16:00,66.0,51.4,29.10,East,93,5.0,12.0,59,0.00,,,0.05,WUHU216DAVISVP2,2013-06-06 03:16:00,
2013-06-05 23:18:00,65.9,51.3,29.10,ESE,105,5.0,11.0,59,0.00,,,0.05,WUHU216DAVISVP2,2013-06-06 03:18:00,
2013-06-05 23:20:00,65.8,51.5,29.10,ESE,109,6.0,10.0,60,0.00,,,0.05,WUHU216DAVISVP2,2013-06-06 03:20:00,
2013-06-05 23:21:00,65.7,51.4,29.10,ESE,120,4.0,10.0,60,0.00,,,0.05,WUHU216DAVISVP2,2013-06-06 03:21:00,
2013-06-05 23:23:00,65.6,51.5,29.10,East,97,4.0,10.0,60,0.00,,,0.05,WUHU216DAVISVP2,2013-06-06 03:23:00,
2013-06-05 23:24:00,65.6,51.5,29.10,East,95,2.0,10.0,60,0.00,,,0.05,WUHU216DAVISVP2,2013-06-06 03:24:00,
2013-06-05 23:25:00,65.6,51.5,29.10,East,87,1.0,10.0,60,0.00,,,0.05,WUHU216DAVISVP2,2013-06-06 03:25:00,
2013-06-05 23:27:00,65.5,51.4,29.10,East,101,4.0,10.0,60,0.00,,,0.05,WUHU216DAVISVP2,2013-06-06 03:27:00,
2013-06-05 23:28:00,65.5,51.4,29.10,East,93,3.0,9.0,60,0.00,,,0.05,WUHU216DAVISVP2,2013-06-06 03:28:00,
2013-06-05 23:29:00,65.4,51.3,29.10,East,95,5.0,9.0,60,0.00,,,0.05,WUHU216DAVISVP2,2013-06-06 03:29:00,
2013-06-05 23:30:00,65.4,51.3,29.10,East,79,3.0,9.0,60,0.00,,,0.05,WUHU216DAVISVP2,2013-06-06 03:30:00,
2013-06-05 23:32:00,65.4,51.3,29.10,East,94,4.0,9.0,60,0.00,,,0.05,WUHU216DAVISVP2,2013-06-06 03:32:00,
2013-06-05 23:33:00,65.4,51.3,29.10,East,86,3.0,9.0,60,0.00,,,0.05,WUHU216DAVISVP2,2013-06-06 03:33:00,
2013-06-05 23:34:00,65.3,51.2,29.10,East,86,4.0,9.0,60,0.00,,,0.05,WUHU216DAVISVP2,2013-06-06 03:34:00,
2013-06-05 23:35:00,65.3,51.2,29.10,East,95,0.0,9.0,60,0.00,,,0.05,WUHU216DAVISVP2,2013-06-06 03:35:00,
2013-06-05 23:37:00,65.3,51.2,29.10,East,95,4.0,8.0,60,0.00,,,0.05,WUHU216DAVISVP2,2013-06-06 03:37:00,
2013-06-05 23:38:00,65.2,51.1,29.10,East,93,2.0,8.0,60,0.00,,,0.05,WUHU216DAVISVP2,2013-06-06 03:38:00,
2013-06-05 23:39:00,65.2,51.1,29.10,East,93,2.0,8.0,60,0.00,,,0.05,WUHU216DAVISVP2,2013-06-06 03:39:00,
2013-06-05 23:40:00,65.2,51.0,29.10,East,91,5.0,8.0,60,0.00,,,0.05,WUHU216DAVISVP2,2013-06-06 03:40:00,
2013-06-05 23:42:00,65.1,50.4,29.10,East,83,3.0,8.0,59,0.00,,,0.05,WUHU216DAVISVP2,2013-06-06 03:42:00,
2013-06-05 23:44:00,65.0,50.3,29.10,East,90,3.0,8.0,59,0.00,,,0.05,WUHU216DAVISVP2,2013-06-06 03:44:00,
2013-06-05 23:45:00,65.0,49.9,29.10,ESE,118,5.0,8.0,58,0.00,,,0.05,WUHU216DAVISVP2,2013-06-06 03:45:00,
2013-06-05 23:48:00,64.9,49.4,29.10,East,81,2.0,8.0,57,0.00,,,0.05,WUHU216DAVISVP2,2013-06-06 03:48:00,
2013-06-05 23:49:00,64.9,49.9,29.11,ENE,68,1.0,8.0,58,0.00,,,0.05,WUHU216DAVISVP2,2013-06-06 03:49:00,
2013-06-05 23:50:00,64.8,49.3,29.11,East,98,4.0,8.0,57,0.00,,,0.05,WUHU216DAVISVP2,2013-06-06 03:50:00,
2013-06-05 23:53:00,64.7,48.8,29.11,ESE,106,4.0,7.0,56,0.00,,,0.05,WUHU216DAVISVP2,2013-06-06 03:53:00,
2013-06-05 23:54:00,64.7,48.8,29.11,East,97,4.0,7.0,56,0.00,,,0.05,WUHU216DAVISVP2,2013-06-06 03:54:00,
2013-06-05 23:55:00,64.6,48.7,29.10,ESE,106,5.0,7.0,56,0.00,,,0.05,WUHU216DAVISVP2,2013-06-06 03:55:00,
2013-06-05 23:59:00,64.5,48.1,29.10,ESE,106,5.0,7.0,55,0.00,,,0.05,WUHU216DAVISVP2,2013-06-06 03:59:00,